Time,TemperatureF,DewpointF,PressureIn,WindDirection,WindDirectionDegrees,WindSpeedMPH,WindSpeedGustMPH,Humidity,HourlyPrecipIn,Conditions,Clouds,dailyrainin,SoftwareType,DateUTC
2013-07-28 00:00:00,81.5,74.0,30.00,SSE,158,0.0,0.0,78,0.00,,---,0.00,VWS V13.01,2013-07-28 04:00:00,
2013-07-28 00:01:00,81.5,74.0,30.00,SSE,158,0.0,0.0,78,0.00,,---,0.00,VWS V13.01,2013-07-28 04:01:00,
2013-07-28 00:06:00,81.5,74.0,30.01,WSW,248,0.0,0.0,78,0.00,,---,0.00,VWS V13.01,2013-07-28 04:06:00,
2013-07-28 00:11:00,81.5,74.0,30.00,South,180,0.0,0.0,78,0.00,,---,0.00,VWS V13.01,2013-07-28 04:11:00,
2013-07-28 00:16:00,81.3,73.8,30.00,South,180,2.2,2.2,78,0.00,,---,0.00,VWS V13.01,2013-07-28 04:16:00,
2013-07-28 00:21:00,81.3,73.8,30.00,SSW,202,0.0,0.0,78,0.00,,---,0.00,VWS V13.01,2013-07-28 04:21:00,
2013-07-28 00:22:00,81.3,73.8,29.99,SSW,202,1.5,1.5,78,0.00,,---,0.00,VWS V13.01,2013-07-28 04:22:00,
2013-07-28 00:26:00,81.3,73.8,30.00,South,180,0.0,0.0,78,0.00,,---,0.00,VWS V13.01,2013-07-28 04:26:00,
2013-07-28 00:27:00,81.3,73.8,29.99,SW,225,1.5,1.5,78,0.00,,---,0.00,VWS V13.01,2013-07-28 04:27:00,
2013-07-28 00:31:00,81.1,73.6,30.00,SSW,202,0.0,0.0,78,0.00,,---,0.00,VWS V13.01,2013-07-28 04:31:00,
2013-07-28 00:32:00,81.1,73.6,30.00,South,180,1.7,1.7,78,0.00,,---,0.00,VWS V13.01,2013-07-28 04:32:00,
2013-07-28 00:36:00,81.1,74.0,29.99,SSW,202,0.0,0.0,79,0.00,,---,0.00,VWS V13.01,2013-07-28 04:36:00,
2013-07-28 00:37:00,81.1,74.0,29.99,SSW,202,0.0,0.0,79,0.00,,---,0.00,VWS V13.01,2013-07-28 04:37:00,
2013-07-28 00:41:00,81.1,74.0,29.99,West,270,0.0,0.0,79,0.00,,---,0.00,VWS V13.01,2013-07-28 04:41:00,
2013-07-28 00:42:00,81.1,74.0,30.00,SSW,202,0.0,0.0,79,0.00,,---,0.00,VWS V13.01,2013-07-28 04:42:00,
2013-07-28 00:46:00,81.1,74.0,29.99,WSW,248,0.0,0.0,79,0.00,,---,0.00,VWS V13.01,2013-07-28 04:46:00,
2013-07-28 00:47:00,81.1,74.0,29.99,SSW,202,0.0,0.0,79,0.00,,---,0.00,VWS V13.01,2013-07-28 04:47:00,
2013-07-28 00:51:00,80.9,73.8,29.99,SSW,202,0.0,0.0,79,0.00,,---,0.00,VWS V13.01,2013-07-28 04:51:00,
2013-07-28 00:52:00,80.9,73.8,29.99,South,180,1.3,1.3,79,0.00,,---,0.00,VWS V13.01,2013-07-28 04:52:00,
2013-07-28 00:56:00,80.9,73.8,29.99,South,180,0.0,0.0,79,0.00,,---,0.00,VWS V13.01,2013-07-28 04:56:00,
2013-07-28 00:57:00,80.9,73.8,29.99,SSE,158,1.5,1.5,79,0.00,,---,0.00,VWS V13.01,2013-07-28 04:57:00,
2013-07-28 01:01:00,80.9,73.8,29.99,SSE,158,0.0,0.0,79,0.00,,---,0.00,VWS V13.01,2013-07-28 05:01:00,
2013-07-28 01:02:00,80.9,73.8,29.99,SSE,158,0.0,0.0,79,0.00,,---,0.00,VWS V13.01,2013-07-28 05:02:00,
2013-07-28 01:06:00,80.9,73.8,29.99,South,180,1.5,1.5,79,0.00,,---,0.00,VWS V13.01,2013-07-28 05:06:00,
2013-07-28 01:07:00,80.9,73.8,29.99,South,180,1.5,1.5,79,0.00,,---,0.00,VWS V13.01,2013-07-28 05:07:00,
2013-07-28 01:12:00,81.1,74.0,29.98,South,180,1.3,1.3,79,0.00,,---,0.00,VWS V13.01,2013-07-28 05:12:00,
2013-07-28 01:17:00,81.1,74.0,29.98,South,180,0.0,0.0,79,0.00,,---,0.00,VWS V13.01,2013-07-28 05:17:00,
2013-07-28 01:22:00,81.1,74.0,29.98,South,180,0.0,0.0,79,0.00,,---,0.00,VWS V13.01,2013-07-28 05:22:00,
2013-07-28 01:27:00,81.1,74.0,29.98,South,180,1.3,1.3,79,0.00,,---,0.00,VWS V13.01,2013-07-28 05:27:00,
2013-07-28 01:32:00,80.9,73.8,29.97,South,180,0.6,0.6,79,0.00,,---,0.00,VWS V13.01,2013-07-28 05:32:00,
2013-07-28 01:37:00,80.9,73.8,29.97,WSW,248,1.3,1.3,79,0.00,,---,0.00,VWS V13.01,2013-07-28 05:37:00,
2013-07-28 01:42:00,80.7,73.6,29.97,North,0,0.0,0.0,79,0.00,,---,0.00,VWS V13.01,2013-07-28 05:42:00,
2013-07-28 01:47:00,80.7,73.6,29.98,WSW,248,0.0,0.0,79,0.00,,---,0.00,VWS V13.01,2013-07-28 05:47:00,
2013-07-28 01:52:00,80.6,73.5,29.97,SSW,202,0.0,0.0,79,0.00,,---,0.00,VWS V13.01,2013-07-28 05:52:00,
2013-07-28 01:57:00,80.4,73.3,29.97,SSW,202,0.0,0.0,79,0.00,,---,0.00,VWS V13.01,2013-07-28 05:57:00,
2013-07-28 02:02:00,80.4,73.3,29.97,South,180,2.4,2.4,79,0.00,,---,0.00,VWS V13.01,2013-07-28 06:02:00,
2013-07-28 02:07:00,80.4,73.3,29.97,South,180,0.0,0.0,79,0.00,,---,0.00,VWS V13.01,2013-07-28 06:07:00,
2013-07-28 02:12:00,80.4,73.3,29.96,SSE,158,0.0,0.0,79,0.00,,---,0.00,VWS V13.01,2013-07-28 06:12:00,
2013-07-28 02:17:00,80.4,73.3,29.97,SSW,202,0.0,0.0,79,0.00,,---,0.00,VWS V13.01,2013-07-28 06:17:00,
2013-07-28 02:22:00,80.2,73.1,29.96,South,180,0.0,0.0,79,0.00,,---,0.00,VWS V13.01,2013-07-28 06:22:00,
2013-07-28 02:27:00,80.2,73.1,29.96,South,180,0.0,0.0,79,0.00,,---,0.00,VWS V13.01,2013-07-28 06:27:00,
2013-07-28 02:32:00,80.0,72.9,29.96,SSW,202,0.0,0.0,79,0.00,,---,0.00,VWS V13.01,2013-07-28 06:32:00,
2013-07-28 02:37:00,80.0,72.9,29.96,SSW,202,0.0,0.0,79,0.00,,---,0.00,VWS V13.01,2013-07-28 06:37:00,
2013-07-28 02:42:00,80.0,72.9,29.96,SSW,202,0.0,0.0,79,0.00,,---,0.00,VWS V13.01,2013-07-28 06:42:00,
2013-07-28 02:47:00,79.8,72.7,29.96,South,180,0.0,0.0,79,0.00,,---,0.00,VWS V13.01,2013-07-28 06:47:00,
2013-07-28 02:52:00,79.8,72.7,29.96,SSW,202,0.0,0.0,79,0.00,,---,0.00,VWS V13.01,2013-07-28 06:52:00,
2013-07-28 02:57:00,79.8,72.7,29.96,SSW,202,0.0,0.0,79,0.00,,---,0.00,VWS V13.01,2013-07-28 06:57:00,
2013-07-28 02:58:00,79.8,72.7,29.96,SSW,202,0.0,0.0,79,0.00,,---,0.00,VWS V13.01,2013-07-28 06:58:00,
2013-07-28 03:02:00,79.8,72.7,29.96,SSW,202,0.0,0.0,79,0.00,,---,0.00,VWS V13.01,2013-07-28 07:02:00,
2013-07-28 03:03:00,79.8,72.7,29.96,SSW,202,0.0,0.0,79,0.00,,---,0.00,VWS V13.01,2013-07-28 07:03:00,
2013-07-28 03:07:00,79.8,72.7,29.96,SSW,202,0.0,0.0,79,0.00,,---,0.00,VWS V13.01,2013-07-28 07:07:00,
2013-07-28 03:08:00,79.8,72.7,29.96,SSW,202,0.0,0.0,79,0.00,,---,0.00,VWS V13.01,2013-07-28 07:08:00,
2013-07-28 03:12:00,79.8,72.7,29.95,ESE,112,0.0,0.0,79,0.00,,---,0.00,VWS V13.01,2013-07-28 07:12:00,
2013-07-28 03:13:00,79.8,72.7,29.95,ESE,112,0.0,0.0,79,0.00,,---,0.00,VWS V13.01,2013-07-28 07:13:00,
2013-07-28 03:17:00,79.8,72.7,29.96,SSE,158,0.0,0.0,79,0.00,,---,0.00,VWS V13.01,2013-07-28 07:17:00,
2013-07-28 03:18:00,79.8,72.7,29.96,SSE,158,0.0,0.0,79,0.00,,---,0.00,VWS V13.01,2013-07-28 07:18:00,
2013-07-28 03:22:00,79.8,72.7,29.96,SE,135,0.0,0.0,79,0.00,,---,0.00,VWS V13.01,2013-07-28 07:22:00,
2013-07-28 03:23:00,79.8,72.7,29.96,SE,135,0.0,0.0,79,0.00,,---,0.00,VWS V13.01,2013-07-28 07:23:00,
2013-07-28 03:27:00,79.8,72.7,29.96,SE,135,0.0,0.0,79,0.00,,---,0.00,VWS V13.01,2013-07-28 07:27:00,
2013-07-28 03:28:00,79.8,72.7,29.96,SE,135,0.0,0.0,79,0.00,,---,0.00,VWS V13.01,2013-07-28 07:28:00,
2013-07-28 03:32:00,79.8,72.7,29.95,South,180,0.0,0.0,79,0.00,,---,0.00,VWS V13.01,2013-07-28 07:32:00,
2013-07-28 03:33:00,79.8,72.7,29.95,South,180,0.0,0.0,79,0.00,,---,0.00,VWS V13.01,2013-07-28 07:33:00,
2013-07-28 03:37:00,79.7,72.6,29.96,South,180,0.0,0.0,79,0.00,,---,0.00,VWS V13.01,2013-07-28 07:37:00,
2013-07-28 03:38:00,79.7,72.6,29.96,South,180,0.0,0.0,79,0.00,,---,0.00,VWS V13.01,2013-07-28 07:38:00,
2013-07-28 03:42:00,79.7,72.6,29.96,South,180,0.0,0.0,79,0.00,,---,0.00,VWS V13.01,2013-07-28 07:42:00,
2013-07-28 03:43:00,79.7,72.6,29.96,South,180,0.0,0.0,79,0.00,,---,0.00,VWS V13.01,2013-07-28 07:43:00,
2013-07-28 03:47:00,79.7,72.6,29.96,South,180,0.0,0.0,79,0.00,,---,0.00,VWS V13.01,2013-07-28 07:47:00,
2013-07-28 03:48:00,79.7,72.6,29.96,South,180,0.0,0.0,79,0.00,,---,0.00,VWS V13.01,2013-07-28 07:48:00,
2013-07-28 03:52:00,79.7,72.6,29.96,SW,225,0.0,0.0,79,0.00,,---,0.00,VWS V13.01,2013-07-28 07:52:00,
2013-07-28 03:53:00,79.7,72.6,29.96,SW,225,0.0,0.0,79,0.00,,---,0.00,VWS V13.01,2013-07-28 07:53:00,
2013-07-28 03:57:00,79.7,72.6,29.96,SSW,202,0.0,0.0,79,0.00,,---,0.00,VWS V13.01,2013-07-28 07:57:00,
2013-07-28 03:58:00,79.7,72.6,29.96,SSW,202,0.0,0.0,79,0.00,,---,0.00,VWS V13.01,2013-07-28 07:58:00,
2013-07-28 04:02:00,79.7,72.6,29.96,SW,225,0.0,0.0,79,0.00,,---,0.00,VWS V13.01,2013-07-28 08:02:00,
2013-07-28 04:03:00,79.7,72.6,29.96,SW,225,0.0,0.0,79,0.00,,---,0.00,VWS V13.01,2013-07-28 08:03:00,
2013-07-28 04:07:00,79.5,72.4,29.96,SSE,158,0.0,0.0,79,0.00,,---,0.00,VWS V13.01,2013-07-28 08:07:00,
2013-07-28 04:08:00,79.5,72.4,29.96,SSE,158,0.0,0.0,79,0.00,,---,0.00,VWS V13.01,2013-07-28 08:08:00,
2013-07-28 04:12:00,79.5,72.4,29.96,SSW,202,0.0,0.0,79,0.00,,---,0.00,VWS V13.01,2013-07-28 08:12:00,
2013-07-28 04:13:00,79.5,72.4,29.96,SSW,202,0.0,0.0,79,0.00,,---,0.00,VWS V13.01,2013-07-28 08:13:00,
2013-07-28 04:17:00,79.5,72.4,29.96,SSW,202,0.0,0.0,79,0.00,,---,0.00,VWS V13.01,2013-07-28 08:17:00,
2013-07-28 04:18:00,79.5,72.4,29.96,SSW,202,0.0,0.0,79,0.00,,---,0.00,VWS V13.01,2013-07-28 08:18:00,
2013-07-28 04:22:00,79.5,72.4,29.96,SE,135,0.0,0.0,79,0.00,,---,0.00,VWS V13.01,2013-07-28 08:22:00,
2013-07-28 04:23:00,79.5,72.4,29.96,SE,135,0.0,0.0,79,0.00,,---,0.00,VWS V13.01,2013-07-28 08:23:00,
2013-07-28 04:27:00,79.5,72.4,29.96,South,180,0.0,0.0,79,0.00,,---,0.00,VWS V13.01,2013-07-28 08:27:00,
2013-07-28 04:28:00,79.5,72.4,29.96,South,180,0.0,0.0,79,0.00,,---,0.00,VWS V13.01,2013-07-28 08:28:00,
2013-07-28 04:32:00,79.7,72.6,29.97,ESE,112,0.0,0.0,79,0.00,,---,0.00,VWS V13.01,2013-07-28 08:32:00,
2013-07-28 04:33:00,79.7,72.6,29.97,ESE,112,0.0,0.0,79,0.00,,---,0.00,VWS V13.01,2013-07-28 08:33:00,
2013-07-28 04:38:00,79.7,73.0,29.97,ENE,68,1.5,1.5,80,0.02,,---,0.02,VWS V13.01,2013-07-28 08:38:00,
2013-07-28 04:43:00,79.5,73.2,29.96,NNE,22,0.0,0.0,81,0.02,,---,0.02,VWS V13.01,2013-07-28 08:43:00,
2013-07-28 04:48:00,79.3,73.0,29.96,East,90,0.0,0.0,81,0.04,,---,0.04,VWS V13.01,2013-07-28 08:48:00,
2013-07-28 04:53:00,79.1,73.1,29.96,ENE,68,0.0,0.0,82,0.04,,---,0.04,VWS V13.01,2013-07-28 08:53:00,
2013-07-28 04:58:00,78.9,72.9,29.96,South,180,1.5,1.5,82,0.04,,---,0.04,VWS V13.01,2013-07-28 08:58:00,
2013-07-28 05:03:00,78.6,72.7,29.96,South,180,0.0,0.0,82,0.04,,---,0.04,VWS V13.01,2013-07-28 09:03:00,
2013-07-28 05:08:00,78.6,72.7,29.97,SSW,202,0.0,0.0,82,0.04,,---,0.04,VWS V13.01,2013-07-28 09:08:00,
2013-07-28 05:13:00,78.6,73.0,29.96,SSW,202,0.0,0.0,83,0.04,,---,0.04,VWS V13.01,2013-07-28 09:13:00,
2013-07-28 05:18:00,78.4,72.8,29.97,SSE,158,0.0,0.0,83,0.04,,---,0.04,VWS V13.01,2013-07-28 09:18:00,
2013-07-28 05:23:00,78.2,72.6,29.97,SSW,202,0.0,0.0,83,0.04,,---,0.04,VWS V13.01,2013-07-28 09:23:00,
2013-07-28 05:28:00,78.0,72.4,29.97,SSW,202,0.0,0.0,83,0.04,,---,0.04,VWS V13.01,2013-07-28 09:28:00,
2013-07-28 05:33:00,78.0,72.4,29.98,SSW,202,0.0,0.0,83,0.04,,---,0.04,VWS V13.01,2013-07-28 09:33:00,
2013-07-28 05:38:00,78.2,72.6,29.97,SSW,202,0.0,0.0,83,0.02,,---,0.04,VWS V13.01,2013-07-28 09:38:00,
2013-07-28 05:43:00,78.4,72.8,29.98,SSW,202,0.0,0.0,83,0.00,,---,0.04,VWS V13.01,2013-07-28 09:43:00,
2013-07-28 05:48:00,78.4,72.8,29.98,SSW,202,0.0,0.0,83,0.00,,---,0.04,VWS V13.01,2013-07-28 09:48:00,
2013-07-28 05:53:00,78.4,72.8,29.98,SSW,202,0.0,0.0,83,0.00,,---,0.04,VWS V13.01,2013-07-28 09:53:00,
2013-07-28 05:58:00,78.4,72.8,29.98,SSW,202,0.0,0.0,83,0.00,,---,0.04,VWS V13.01,2013-07-28 09:58:00,
2013-07-28 05:59:00,78.4,72.8,29.98,SSW,202,0.0,0.0,83,0.00,,---,0.04,VWS V13.01,2013-07-28 09:59:00,
2013-07-28 06:03:00,78.4,72.8,29.98,SSW,202,0.0,0.0,83,0.00,,---,0.04,VWS V13.01,2013-07-28 10:03:00,
2013-07-28 06:04:00,78.4,72.8,29.98,SSW,202,0.0,0.0,83,0.00,,---,0.04,VWS V13.01,2013-07-28 10:04:00,
2013-07-28 06:08:00,78.4,72.8,29.98,SSW,202,0.0,0.0,83,0.00,,---,0.04,VWS V13.01,2013-07-28 10:08:00,
2013-07-28 06:09:00,78.4,73.2,29.98,SSW,202,0.0,0.0,84,0.00,,---,0.04,VWS V13.01,2013-07-28 10:09:00,
2013-07-28 06:13:00,78.4,73.2,29.98,SSW,202,0.0,0.0,84,0.00,,---,0.04,VWS V13.01,2013-07-28 10:13:00,
2013-07-28 06:14:00,78.4,73.2,29.98,SSW,202,0.0,0.0,84,0.00,,---,0.04,VWS V13.01,2013-07-28 10:14:00,
2013-07-28 06:18:00,78.4,73.2,29.98,SW,225,0.0,0.0,84,0.00,,---,0.04,VWS V13.01,2013-07-28 10:18:00,
2013-07-28 06:23:00,78.6,73.4,29.98,SW,225,0.0,0.0,84,0.00,,---,0.04,VWS V13.01,2013-07-28 10:23:00,
2013-07-28 06:28:00,78.6,73.4,29.99,SSW,202,0.0,0.0,84,0.00,,---,0.04,VWS V13.01,2013-07-28 10:28:00,
2013-07-28 06:29:00,78.6,73.4,29.99,SSW,202,0.0,0.0,84,0.00,,---,0.04,VWS V13.01,2013-07-28 10:29:00,
2013-07-28 06:33:00,78.6,73.0,29.99,SSW,202,0.0,0.0,83,0.00,,---,0.04,VWS V13.01,2013-07-28 10:33:00,
2013-07-28 06:34:00,78.6,73.0,29.99,SSW,202,0.0,0.0,83,0.00,,---,0.04,VWS V13.01,2013-07-28 10:34:00,
2013-07-28 06:38:00,78.6,73.4,29.99,SSW,202,0.0,0.0,84,0.00,,---,0.04,VWS V13.01,2013-07-28 10:38:00,
2013-07-28 06:39:00,78.6,73.4,29.99,SSW,202,0.0,0.0,84,0.00,,---,0.04,VWS V13.01,2013-07-28 10:39:00,
2013-07-28 06:43:00,78.9,73.7,29.99,SW,225,0.0,0.0,84,0.00,,---,0.04,VWS V13.01,2013-07-28 10:43:00,
2013-07-28 06:44:00,78.9,73.7,29.99,SW,225,0.0,0.0,84,0.00,,---,0.04,VWS V13.01,2013-07-28 10:44:00,
2013-07-28 06:48:00,79.1,73.8,29.99,SSW,202,0.0,0.0,84,0.00,,---,0.04,VWS V13.01,2013-07-28 10:48:00,
2013-07-28 06:49:00,79.1,73.8,29.99,SSW,202,0.0,0.0,84,0.00,,---,0.04,VWS V13.01,2013-07-28 10:49:00,
2013-07-28 06:53:00,79.1,73.8,30.00,South,180,0.0,0.0,84,0.00,,---,0.04,VWS V13.01,2013-07-28 10:53:00,
2013-07-28 06:54:00,79.1,73.8,30.00,South,180,0.0,0.0,84,0.00,,---,0.04,VWS V13.01,2013-07-28 10:54:00,
2013-07-28 06:58:00,79.5,74.2,30.00,SSW,202,0.0,0.0,84,0.00,,---,0.04,VWS V13.01,2013-07-28 10:58:00,
2013-07-28 06:59:00,79.5,74.2,30.00,SSW,202,0.0,0.0,84,0.00,,---,0.04,VWS V13.01,2013-07-28 10:59:00,
2013-07-28 07:03:00,79.5,73.9,30.00,SSW,202,0.0,0.0,83,0.00,,---,0.04,VWS V13.01,2013-07-28 11:03:00,
2013-07-28 07:04:00,79.5,73.9,30.00,SSW,202,0.0,0.0,83,0.00,,---,0.04,VWS V13.01,2013-07-28 11:04:00,
2013-07-28 07:08:00,79.8,74.2,30.00,SSW,202,0.0,0.0,83,0.00,,---,0.04,VWS V13.01,2013-07-28 11:08:00,
2013-07-28 07:09:00,79.8,74.2,30.00,SSW,202,0.0,0.0,83,0.00,,---,0.04,VWS V13.01,2013-07-28 11:09:00,
2013-07-28 07:13:00,80.0,74.4,30.00,East,90,0.0,0.0,83,0.00,,---,0.04,VWS V13.01,2013-07-28 11:13:00,
2013-07-28 07:14:00,80.0,74.4,30.00,East,90,0.0,0.0,83,0.00,,---,0.04,VWS V13.01,2013-07-28 11:14:00,
2013-07-28 07:18:00,80.2,74.6,30.00,SSW,202,0.0,0.0,83,0.00,,---,0.04,VWS V13.01,2013-07-28 11:18:00,
2013-07-28 07:19:00,80.2,74.6,30.00,SSW,202,0.0,0.0,83,0.00,,---,0.04,VWS V13.01,2013-07-28 11:19:00,
2013-07-28 07:23:00,80.4,74.4,30.00,SSW,202,0.0,0.0,82,0.00,,---,0.04,VWS V13.01,2013-07-28 11:23:00,
2013-07-28 07:24:00,80.4,74.4,30.00,SSW,202,0.0,0.0,82,0.00,,---,0.04,VWS V13.01,2013-07-28 11:24:00,
2013-07-28 07:28:00,80.4,74.0,30.00,SSE,158,0.0,0.0,81,0.00,,---,0.04,VWS V13.01,2013-07-28 11:28:00,
2013-07-28 07:29:00,80.4,74.0,30.00,SSE,158,0.0,0.0,81,0.00,,---,0.04,VWS V13.01,2013-07-28 11:29:00,
2013-07-28 07:33:00,80.7,74.3,30.00,SSW,202,0.0,0.0,81,0.00,,---,0.04,VWS V13.01,2013-07-28 11:33:00,
2013-07-28 07:34:00,80.7,74.3,30.00,SSW,202,0.0,0.0,81,0.00,,---,0.04,VWS V13.01,2013-07-28 11:34:00,
2013-07-28 07:38:00,80.7,74.3,30.00,WSW,248,0.0,0.0,81,0.00,,---,0.04,VWS V13.01,2013-07-28 11:38:00,
2013-07-28 07:39:00,80.7,74.3,30.00,WSW,248,0.0,0.0,81,0.00,,---,0.04,VWS V13.01,2013-07-28 11:39:00,
2013-07-28 07:43:00,81.1,74.3,30.00,SW,225,0.0,0.0,80,0.00,,---,0.04,VWS V13.01,2013-07-28 11:43:00,
2013-07-28 07:44:00,81.1,74.3,30.00,SW,225,0.0,0.0,80,0.00,,---,0.04,VWS V13.01,2013-07-28 11:44:00,
2013-07-28 07:48:00,81.1,74.3,30.01,SE,135,0.0,0.0,80,0.00,,---,0.04,VWS V13.01,2013-07-28 11:48:00,
2013-07-28 07:49:00,81.1,74.3,30.01,SE,135,0.0,0.0,80,0.00,,---,0.04,VWS V13.01,2013-07-28 11:49:00,
2013-07-28 07:53:00,81.3,74.5,30.00,SE,135,1.3,1.3,80,0.00,,---,0.04,VWS V13.01,2013-07-28 11:53:00,
2013-07-28 07:54:00,81.3,74.5,30.00,SE,135,1.3,1.3,80,0.00,,---,0.04,VWS V13.01,2013-07-28 11:54:00,
2013-07-28 07:58:00,81.3,74.5,30.01,ESE,112,0.0,0.0,80,0.00,,---,0.04,VWS V13.01,2013-07-28 11:58:00,
2013-07-28 07:59:00,81.3,74.5,30.01,ESE,112,0.0,0.0,80,0.00,,---,0.04,VWS V13.01,2013-07-28 11:59:00,
2013-07-28 08:03:00,81.5,74.7,30.00,South,180,0.0,0.0,80,0.00,,---,0.04,VWS V13.01,2013-07-28 12:03:00,
2013-07-28 08:04:00,81.5,74.7,30.00,South,180,0.0,0.0,80,0.00,,---,0.04,VWS V13.01,2013-07-28 12:04:00,
2013-07-28 08:08:00,81.5,74.7,30.00,South,180,0.0,0.0,80,0.00,,---,0.04,VWS V13.01,2013-07-28 12:08:00,
2013-07-28 08:09:00,81.5,74.7,30.00,South,180,0.0,0.0,80,0.00,,---,0.04,VWS V13.01,2013-07-28 12:09:00,
2013-07-28 08:13:00,81.6,74.8,30.01,SSE,158,1.7,1.7,80,0.00,,---,0.04,VWS V13.01,2013-07-28 12:13:00,
2013-07-28 08:14:00,81.6,74.8,30.01,SSE,158,1.7,1.7,80,0.00,,---,0.04,VWS V13.01,2013-07-28 12:14:00,
2013-07-28 08:18:00,81.8,75.0,30.01,ESE,112,0.0,0.0,80,0.00,,---,0.04,VWS V13.01,2013-07-28 12:18:00,
2013-07-28 08:19:00,81.8,75.0,30.01,ESE,112,0.0,0.0,80,0.00,,---,0.04,VWS V13.01,2013-07-28 12:19:00,
2013-07-28 08:23:00,82.0,75.2,30.01,ENE,68,0.0,0.0,80,0.00,,---,0.04,VWS V13.01,2013-07-28 12:23:00,
2013-07-28 08:24:00,82.0,75.2,30.01,ENE,68,0.0,0.0,80,0.00,,---,0.04,VWS V13.01,2013-07-28 12:24:00,
2013-07-28 08:29:00,82.0,75.2,30.01,SSE,158,1.5,1.5,80,0.00,,---,0.04,VWS V13.01,2013-07-28 12:29:00,
2013-07-28 08:34:00,82.0,75.2,30.01,SE,135,0.0,0.0,80,0.00,,---,0.04,VWS V13.01,2013-07-28 12:34:00,
2013-07-28 08:39:00,82.0,74.8,30.01,SE,135,2.0,2.0,79,0.00,,---,0.04,VWS V13.01,2013-07-28 12:39:00,
2013-07-28 08:44:00,82.2,75.0,30.01,East,90,0.0,0.0,79,0.00,,---,0.04,VWS V13.01,2013-07-28 12:44:00,
2013-07-28 08:49:00,82.5,75.3,30.02,ENE,68,1.3,1.3,79,0.00,,---,0.04,VWS V13.01,2013-07-28 12:49:00,
2013-07-28 08:54:00,82.5,75.3,30.01,NE,45,1.5,1.5,79,0.00,,---,0.04,VWS V13.01,2013-07-28 12:54:00,
2013-07-28 08:55:00,82.5,75.3,30.02,ENE,68,0.0,0.0,79,0.00,,---,0.04,VWS V13.01,2013-07-28 12:55:00,
2013-07-28 08:59:00,82.7,75.5,30.01,North,0,0.0,0.0,79,0.00,,---,0.04,VWS V13.01,2013-07-28 12:59:00,
2013-07-28 09:00:00,82.7,75.5,30.01,ESE,112,1.5,1.5,79,0.00,,---,0.04,VWS V13.01,2013-07-28 13:00:00,
2013-07-28 09:04:00,82.9,75.3,30.01,ENE,68,0.0,0.0,78,0.00,,---,0.04,VWS V13.01,2013-07-28 13:04:00,
2013-07-28 09:05:00,82.9,75.3,30.01,NE,45,2.0,2.0,78,0.00,,---,0.04,VWS V13.01,2013-07-28 13:05:00,
2013-07-28 09:09:00,83.1,75.5,30.01,ESE,112,1.7,1.7,78,0.00,,---,0.04,VWS V13.01,2013-07-28 13:09:00,
2013-07-28 09:10:00,83.1,75.5,30.01,ESE,112,0.6,0.6,78,0.00,,---,0.04,VWS V13.01,2013-07-28 13:10:00,
2013-07-28 09:14:00,83.3,75.7,30.01,ENE,68,2.4,2.4,78,0.00,,---,0.04,VWS V13.01,2013-07-28 13:14:00,
2013-07-28 09:15:00,83.3,75.7,30.02,ENE,68,4.2,4.2,78,0.00,,---,0.04,VWS V13.01,2013-07-28 13:15:00,
2013-07-28 09:19:00,83.4,75.8,30.02,ENE,68,3.1,3.1,78,0.00,,---,0.04,VWS V13.01,2013-07-28 13:19:00,
2013-07-28 09:20:00,83.6,76.0,30.02,East,90,5.8,5.8,78,0.00,,---,0.04,VWS V13.01,2013-07-28 13:20:00,
2013-07-28 09:24:00,83.8,75.8,30.02,East,90,1.5,1.5,77,0.00,,---,0.04,VWS V13.01,2013-07-28 13:24:00,
2013-07-28 09:25:00,83.8,75.8,30.02,ESE,112,0.6,0.6,77,0.00,,---,0.04,VWS V13.01,2013-07-28 13:25:00,
2013-07-28 09:29:00,84.0,76.0,30.02,NE,45,2.4,2.4,77,0.00,,---,0.04,VWS V13.01,2013-07-28 13:29:00,
2013-07-28 09:30:00,84.0,76.0,30.02,East,90,2.9,2.9,77,0.00,,---,0.04,VWS V13.01,2013-07-28 13:30:00,
2013-07-28 09:34:00,84.0,76.0,30.02,NE,45,0.0,0.0,77,0.00,,---,0.04,VWS V13.01,2013-07-28 13:34:00,
2013-07-28 09:35:00,84.0,76.0,30.02,ENE,68,2.0,2.0,77,0.00,,---,0.04,VWS V13.01,2013-07-28 13:35:00,
2013-07-28 09:39:00,84.2,76.2,30.02,East,90,3.8,3.8,77,0.00,,---,0.04,VWS V13.01,2013-07-28 13:39:00,
2013-07-28 09:40:00,84.2,76.2,30.02,East,90,3.3,3.3,77,0.00,,---,0.04,VWS V13.01,2013-07-28 13:40:00,
2013-07-28 09:44:00,84.3,76.3,30.01,East,90,4.9,4.9,77,0.00,,---,0.04,VWS V13.01,2013-07-28 13:44:00,
2013-07-28 09:45:00,84.5,76.5,30.02,SE,135,2.6,2.6,77,0.00,,---,0.04,VWS V13.01,2013-07-28 13:45:00,
2013-07-28 09:49:00,84.7,76.7,30.02,East,90,3.1,3.1,77,0.00,,---,0.04,VWS V13.01,2013-07-28 13:49:00,
2013-07-28 09:50:00,84.7,76.7,30.02,East,90,3.1,3.1,77,0.00,,---,0.04,VWS V13.01,2013-07-28 13:50:00,
2013-07-28 09:54:00,84.9,76.5,30.02,ENE,68,4.6,4.6,76,0.00,,---,0.04,VWS V13.01,2013-07-28 13:54:00,
2013-07-28 09:55:00,84.9,76.5,30.02,ENE,68,4.6,4.6,76,0.00,,---,0.04,VWS V13.01,2013-07-28 13:55:00,
2013-07-28 09:59:00,85.1,76.3,30.02,ESE,112,1.7,1.7,75,0.00,,---,0.04,VWS V13.01,2013-07-28 13:59:00,
2013-07-28 10:00:00,85.1,76.3,30.02,ESE,112,1.7,1.7,75,0.00,,---,0.04,VWS V13.01,2013-07-28 14:00:00,
2013-07-28 10:04:00,85.2,76.0,30.02,ENE,68,5.8,5.8,74,0.00,,---,0.04,VWS V13.01,2013-07-28 14:04:00,
2013-07-28 10:05:00,85.2,76.0,30.02,NE,45,6.9,6.9,74,0.00,,---,0.04,VWS V13.01,2013-07-28 14:05:00,
2013-07-28 10:09:00,85.4,76.2,30.02,NE,45,2.2,2.2,74,0.00,,---,0.04,VWS V13.01,2013-07-28 14:09:00,
2013-07-28 10:10:00,85.4,76.2,30.02,NE,45,2.2,2.2,74,0.00,,---,0.04,VWS V13.01,2013-07-28 14:10:00,
2013-07-28 10:14:00,85.8,76.6,30.03,ENE,68,1.5,1.5,74,0.00,,---,0.04,VWS V13.01,2013-07-28 14:14:00,
2013-07-28 10:15:00,85.8,76.6,30.03,ENE,68,7.8,7.8,74,0.00,,---,0.04,VWS V13.01,2013-07-28 14:15:00,
2013-07-28 10:19:00,85.8,76.2,30.02,East,90,4.4,4.4,73,0.00,,---,0.04,VWS V13.01,2013-07-28 14:19:00,
2013-07-28 10:20:00,85.8,76.2,30.02,East,90,8.0,8.0,73,0.00,,---,0.04,VWS V13.01,2013-07-28 14:20:00,
2013-07-28 10:24:00,86.1,76.4,30.02,ENE,68,6.9,6.9,73,0.00,,---,0.04,VWS V13.01,2013-07-28 14:24:00,
2013-07-28 10:25:00,86.1,76.4,30.02,East,90,7.1,7.1,73,0.00,,---,0.04,VWS V13.01,2013-07-28 14:25:00,
2013-07-28 10:29:00,86.1,76.4,30.02,ENE,68,8.0,8.0,73,0.00,,---,0.04,VWS V13.01,2013-07-28 14:29:00,
2013-07-28 10:30:00,86.1,76.4,30.02,East,90,6.9,6.9,73,0.00,,---,0.04,VWS V13.01,2013-07-28 14:30:00,
2013-07-28 10:34:00,86.1,76.4,30.02,East,90,6.9,6.9,73,0.00,,---,0.04,VWS V13.01,2013-07-28 14:34:00,
2013-07-28 10:35:00,86.3,76.6,30.02,ESE,112,6.0,6.0,73,0.00,,---,0.04,VWS V13.01,2013-07-28 14:35:00,
2013-07-28 10:39:00,86.1,76.0,30.02,East,90,11.1,14.3,72,0.00,,---,0.04,VWS V13.01,2013-07-28 14:39:00,
2013-07-28 10:40:00,86.0,75.9,30.02,NE,45,7.1,7.1,72,0.00,,---,0.04,VWS V13.01,2013-07-28 14:40:00,
2013-07-28 10:44:00,85.8,75.7,30.02,NE,45,8.7,8.7,72,0.00,,---,0.04,VWS V13.01,2013-07-28 14:44:00,
2013-07-28 10:45:00,85.8,75.7,30.01,East,90,9.6,9.6,72,0.00,,---,0.04,VWS V13.01,2013-07-28 14:45:00,
2013-07-28 10:49:00,85.6,76.0,30.02,East,90,10.0,10.0,73,0.00,,---,0.04,VWS V13.01,2013-07-28 14:49:00,
2013-07-28 10:50:00,85.6,76.0,30.01,NE,45,1.5,1.5,73,0.00,,---,0.04,VWS V13.01,2013-07-28 14:50:00,
2013-07-28 10:54:00,85.2,75.6,30.02,ENE,68,3.3,3.3,73,0.00,,---,0.04,VWS V13.01,2013-07-28 14:54:00,
2013-07-28 10:55:00,85.2,75.6,30.02,ENE,68,3.3,3.3,73,0.00,,---,0.04,VWS V13.01,2013-07-28 14:55:00,
2013-07-28 10:59:00,85.4,75.8,30.02,East,90,6.0,6.0,73,0.00,,---,0.04,VWS V13.01,2013-07-28 14:59:00,
2013-07-28 11:00:00,85.4,75.8,30.02,ESE,112,8.5,8.5,73,0.00,,---,0.04,VWS V13.01,2013-07-28 15:00:00,
2013-07-28 11:04:00,85.2,75.6,30.01,ESE,112,5.8,5.8,73,0.00,,---,0.04,VWS V13.01,2013-07-28 15:04:00,
2013-07-28 11:05:00,85.2,75.6,30.01,ESE,112,5.8,5.8,73,0.00,,---,0.04,VWS V13.01,2013-07-28 15:05:00,
2013-07-28 11:09:00,85.1,75.5,30.02,SE,135,3.8,3.8,73,0.00,,---,0.04,VWS V13.01,2013-07-28 15:09:00,
2013-07-28 11:10:00,85.1,75.5,30.02,SE,135,3.8,3.8,73,0.00,,---,0.04,VWS V13.01,2013-07-28 15:10:00,
2013-07-28 11:14:00,84.9,75.3,30.02,ENE,68,6.7,6.7,73,0.00,,---,0.04,VWS V13.01,2013-07-28 15:14:00,
2013-07-28 11:15:00,84.9,75.3,30.02,ENE,68,6.7,6.7,73,0.00,,---,0.04,VWS V13.01,2013-07-28 15:15:00,
2013-07-28 11:19:00,84.7,75.1,30.02,ENE,68,7.3,7.3,73,0.00,,---,0.04,VWS V13.01,2013-07-28 15:19:00,
2013-07-28 11:20:00,84.7,75.1,30.02,ENE,68,7.3,7.3,73,0.00,,---,0.04,VWS V13.01,2013-07-28 15:20:00,
2013-07-28 11:24:00,84.7,75.1,30.01,NNE,22,5.5,5.5,73,0.00,,---,0.04,VWS V13.01,2013-07-28 15:24:00,
2013-07-28 11:25:00,84.7,75.1,30.01,NNE,22,5.5,5.5,73,0.00,,---,0.04,VWS V13.01,2013-07-28 15:25:00,
2013-07-28 11:29:00,84.9,75.3,30.02,East,90,1.5,1.5,73,0.00,,---,0.04,VWS V13.01,2013-07-28 15:29:00,
2013-07-28 11:30:00,84.9,75.3,30.02,East,90,1.5,1.5,73,0.00,,---,0.04,VWS V13.01,2013-07-28 15:30:00,
2013-07-28 11:34:00,84.9,75.3,30.02,NE,45,6.9,6.9,73,0.00,,---,0.04,VWS V13.01,2013-07-28 15:34:00,
2013-07-28 11:35:00,84.9,75.3,30.02,NE,45,6.9,6.9,73,0.00,,---,0.04,VWS V13.01,2013-07-28 15:35:00,
2013-07-28 11:39:00,84.7,75.1,30.01,ESE,112,1.3,1.3,73,0.00,,---,0.04,VWS V13.01,2013-07-28 15:39:00,
2013-07-28 11:40:00,84.7,75.1,30.01,ESE,112,1.3,1.3,73,0.00,,---,0.04,VWS V13.01,2013-07-28 15:40:00,
2013-07-28 11:41:00,84.7,75.1,30.01,NE,45,5.8,5.8,73,0.00,,---,0.04,VWS V13.01,2013-07-28 15:41:00,
2013-07-28 11:44:00,84.7,75.1,30.01,NE,45,8.5,8.5,73,0.00,,---,0.04,VWS V13.01,2013-07-28 15:44:00,
2013-07-28 11:45:00,84.7,75.1,30.01,NE,45,8.5,8.5,73,0.00,,---,0.04,VWS V13.01,2013-07-28 15:45:00,
2013-07-28 11:46:00,84.7,75.1,30.01,ENE,68,4.2,4.2,73,0.00,,---,0.04,VWS V13.01,2013-07-28 15:46:00,
2013-07-28 11:49:00,84.5,74.9,30.01,ENE,68,2.9,2.9,73,0.00,,---,0.04,VWS V13.01,2013-07-28 15:49:00,
2013-07-28 11:50:00,84.5,74.9,30.01,ENE,68,2.9,2.9,73,0.00,,---,0.04,VWS V13.01,2013-07-28 15:50:00,
2013-07-28 11:51:00,84.5,74.9,30.01,NE,45,4.6,4.6,73,0.00,,---,0.04,VWS V13.01,2013-07-28 15:51:00,
2013-07-28 11:54:00,84.7,75.5,30.01,East,90,5.5,5.5,74,0.00,,---,0.04,VWS V13.01,2013-07-28 15:54:00,
2013-07-28 11:55:00,84.7,75.5,30.01,East,90,5.5,5.5,74,0.00,,---,0.04,VWS V13.01,2013-07-28 15:55:00,
2013-07-28 11:56:00,84.5,75.3,30.01,ESE,112,5.8,5.8,74,0.00,,---,0.04,VWS V13.01,2013-07-28 15:56:00,
2013-07-28 11:59:00,84.7,75.1,30.01,ENE,68,2.9,2.9,73,0.00,,---,0.04,VWS V13.01,2013-07-28 15:59:00,
2013-07-28 12:00:00,84.7,75.1,30.01,ENE,68,2.9,2.9,73,0.00,,---,0.04,VWS V13.01,2013-07-28 16:00:00,
2013-07-28 12:01:00,84.7,75.1,30.01,ENE,68,4.6,4.6,73,0.00,,---,0.04,VWS V13.01,2013-07-28 16:01:00,
2013-07-28 12:04:00,84.9,75.3,30.01,ENE,68,3.8,5.8,73,0.00,,---,0.04,VWS V13.01,2013-07-28 16:04:00,
2013-07-28 12:05:00,84.9,75.3,30.01,ENE,68,3.8,3.8,73,0.00,,---,0.04,VWS V13.01,2013-07-28 16:05:00,
2013-07-28 12:06:00,84.9,75.3,30.01,ENE,68,6.0,6.0,73,0.00,,---,0.04,VWS V13.01,2013-07-28 16:06:00,
2013-07-28 12:09:00,85.2,75.6,30.00,ENE,68,1.1,1.1,73,0.00,,---,0.04,VWS V13.01,2013-07-28 16:09:00,
2013-07-28 12:10:00,85.2,75.6,30.00,ENE,68,1.1,1.1,73,0.00,,---,0.04,VWS V13.01,2013-07-28 16:10:00,
2013-07-28 12:11:00,85.2,75.6,30.00,ENE,68,5.3,5.3,73,0.00,,---,0.04,VWS V13.01,2013-07-28 16:11:00,
2013-07-28 12:14:00,85.2,75.6,30.00,ESE,112,3.1,3.1,73,0.00,,---,0.04,VWS V13.01,2013-07-28 16:14:00,
2013-07-28 12:15:00,85.2,75.6,30.00,ESE,112,3.1,3.1,73,0.00,,---,0.04,VWS V13.01,2013-07-28 16:15:00,
2013-07-28 12:16:00,85.2,75.6,30.00,ENE,68,3.5,3.5,73,0.00,,---,0.04,VWS V13.01,2013-07-28 16:16:00,
2013-07-28 12:19:00,85.1,75.5,30.01,ESE,112,4.2,4.2,73,0.00,,---,0.04,VWS V13.01,2013-07-28 16:19:00,
2013-07-28 12:20:00,85.1,75.5,30.01,ESE,112,4.2,4.2,73,0.00,,---,0.04,VWS V13.01,2013-07-28 16:20:00,
2013-07-28 12:21:00,85.1,75.5,30.00,East,90,0.0,0.0,73,0.00,,---,0.04,VWS V13.01,2013-07-28 16:21:00,
2013-07-28 12:24:00,84.9,75.3,30.00,East,90,3.1,3.1,73,0.00,,---,0.04,VWS V13.01,2013-07-28 16:24:00,
2013-07-28 12:25:00,84.9,75.3,30.00,East,90,3.1,3.1,73,0.00,,---,0.04,VWS V13.01,2013-07-28 16:25:00,
2013-07-28 12:26:00,84.9,75.3,30.00,ENE,68,4.4,4.4,73,0.00,,---,0.04,VWS V13.01,2013-07-28 16:26:00,
2013-07-28 12:29:00,84.9,75.3,30.00,East,90,4.6,4.6,73,0.00,,---,0.04,VWS V13.01,2013-07-28 16:29:00,
2013-07-28 12:30:00,84.9,75.3,30.00,East,90,4.6,4.6,73,0.00,,---,0.04,VWS V13.01,2013-07-28 16:30:00,
2013-07-28 12:32:00,84.9,74.9,30.00,ENE,68,2.9,2.9,72,0.00,,---,0.04,VWS V13.01,2013-07-28 16:32:00,
2013-07-28 12:34:00,84.9,74.9,29.99,ENE,68,5.1,5.1,72,0.00,,---,0.04,VWS V13.01,2013-07-28 16:34:00,
2013-07-28 12:35:00,84.9,74.9,29.99,ENE,68,5.1,5.1,72,0.00,,---,0.04,VWS V13.01,2013-07-28 16:35:00,
2013-07-28 12:37:00,85.1,75.1,29.99,ENE,68,4.4,4.4,72,0.00,,---,0.04,VWS V13.01,2013-07-28 16:37:00,
2013-07-28 12:39:00,85.1,75.1,29.99,ENE,68,3.8,3.8,72,0.00,,---,0.04,VWS V13.01,2013-07-28 16:39:00,
2013-07-28 12:40:00,85.1,75.1,29.99,ENE,68,3.8,3.8,72,0.00,,---,0.04,VWS V13.01,2013-07-28 16:40:00,
2013-07-28 12:42:00,85.1,75.1,29.99,East,90,0.0,0.0,72,0.00,,---,0.04,VWS V13.01,2013-07-28 16:42:00,
2013-07-28 12:44:00,85.2,75.2,29.99,East,90,2.0,2.0,72,0.00,,---,0.04,VWS V13.01,2013-07-28 16:44:00,
2013-07-28 12:45:00,85.2,75.2,29.99,East,90,2.0,2.0,72,0.00,,---,0.04,VWS V13.01,2013-07-28 16:45:00,
2013-07-28 12:47:00,85.2,75.2,29.99,ESE,112,2.0,2.0,72,0.00,,---,0.04,VWS V13.01,2013-07-28 16:47:00,
2013-07-28 12:49:00,85.4,75.3,29.99,ENE,68,0.8,0.8,72,0.00,,---,0.04,VWS V13.01,2013-07-28 16:49:00,
2013-07-28 12:50:00,85.4,75.3,29.99,ENE,68,0.8,0.8,72,0.00,,---,0.04,VWS V13.01,2013-07-28 16:50:00,
2013-07-28 12:52:00,85.6,75.1,29.99,NE,45,3.5,3.5,71,0.00,,---,0.04,VWS V13.01,2013-07-28 16:52:00,
2013-07-28 12:54:00,85.6,75.1,29.99,East,90,0.8,0.8,71,0.00,,---,0.04,VWS V13.01,2013-07-28 16:54:00,
2013-07-28 12:55:00,85.6,75.1,29.99,East,90,0.8,0.8,71,0.00,,---,0.04,VWS V13.01,2013-07-28 16:55:00,
2013-07-28 12:57:00,85.8,74.9,29.99,SSE,158,2.6,5.8,70,0.00,,---,0.04,VWS V13.01,2013-07-28 16:57:00,
2013-07-28 12:59:00,86.1,74.8,29.99,NNE,22,5.1,5.1,69,0.00,,---,0.04,VWS V13.01,2013-07-28 16:59:00,
2013-07-28 13:00:00,86.1,74.8,29.99,NNE,22,5.1,5.1,69,0.00,,---,0.04,VWS V13.01,2013-07-28 17:00:00,
2013-07-28 13:02:00,86.3,74.9,29.99,NE,45,0.0,0.0,69,0.00,,---,0.04,VWS V13.01,2013-07-28 17:02:00,
2013-07-28 13:04:00,86.3,74.5,29.99,East,90,1.7,1.7,68,0.00,,---,0.04,VWS V13.01,2013-07-28 17:04:00,
2013-07-28 13:05:00,86.3,74.5,29.99,East,90,1.7,1.7,68,0.00,,---,0.04,VWS V13.01,2013-07-28 17:05:00,
2013-07-28 13:07:00,86.5,74.7,29.99,East,90,4.6,4.6,68,0.00,,---,0.04,VWS V13.01,2013-07-28 17:07:00,
2013-07-28 13:09:00,86.7,74.9,29.99,ENE,68,2.2,2.2,68,0.00,,---,0.04,VWS V13.01,2013-07-28 17:09:00,
2013-07-28 13:10:00,86.7,74.9,29.99,ENE,68,2.2,2.2,68,0.00,,---,0.04,VWS V13.01,2013-07-28 17:10:00,
2013-07-28 13:12:00,86.9,75.1,29.98,North,0,2.2,2.2,68,0.00,,---,0.04,VWS V13.01,2013-07-28 17:12:00,
2013-07-28 13:14:00,86.9,75.1,29.98,NE,45,0.0,0.0,68,0.00,,---,0.04,VWS V13.01,2013-07-28 17:14:00,
2013-07-28 13:15:00,86.9,75.1,29.98,NE,45,0.0,0.0,68,0.00,,---,0.04,VWS V13.01,2013-07-28 17:15:00,
2013-07-28 13:17:00,87.0,75.6,29.99,NNE,22,0.0,0.0,69,0.00,,---,0.04,VWS V13.01,2013-07-28 17:17:00,
2013-07-28 13:19:00,86.9,75.5,29.99,NNE,22,1.1,1.1,69,0.00,,---,0.04,VWS V13.01,2013-07-28 17:19:00,
2013-07-28 13:20:00,86.9,75.5,29.99,NNE,22,1.1,1.1,69,0.00,,---,0.04,VWS V13.01,2013-07-28 17:20:00,
2013-07-28 13:22:00,86.7,75.3,29.99,NNE,22,1.1,1.1,69,0.00,,---,0.04,VWS V13.01,2013-07-28 17:22:00,
2013-07-28 13:24:00,86.5,75.6,29.99,NNE,22,4.0,4.0,70,0.00,,---,0.04,VWS V13.01,2013-07-28 17:24:00,
2013-07-28 13:25:00,86.5,75.6,29.99,NNE,22,4.0,4.0,70,0.00,,---,0.04,VWS V13.01,2013-07-28 17:25:00,
2013-07-28 13:27:00,86.7,75.8,29.99,NE,45,4.6,4.6,70,0.00,,---,0.04,VWS V13.01,2013-07-28 17:27:00,
2013-07-28 13:30:00,86.7,75.8,29.98,NE,45,5.8,5.8,70,0.00,,---,0.04,VWS V13.01,2013-07-28 17:30:00,
2013-07-28 13:32:00,87.0,76.0,29.98,NNE,22,1.7,1.7,70,0.00,,---,0.04,VWS V13.01,2013-07-28 17:32:00,
2013-07-28 13:35:00,87.2,76.2,29.98,NNE,22,3.5,3.5,70,0.00,,---,0.04,VWS V13.01,2013-07-28 17:35:00,
2013-07-28 13:37:00,87.6,76.2,29.98,NNW,338,1.1,1.1,69,0.00,,---,0.04,VWS V13.01,2013-07-28 17:37:00,
2013-07-28 13:40:00,87.6,76.2,29.98,NE,45,2.0,2.0,69,0.00,,---,0.04,VWS V13.01,2013-07-28 17:40:00,
2013-07-28 13:41:00,87.6,76.2,29.98,SE,135,0.8,0.8,69,0.00,,---,0.04,VWS V13.01,2013-07-28 17:41:00,
2013-07-28 13:43:00,87.6,76.2,29.98,NE,45,4.4,4.4,69,0.00,,---,0.04,VWS V13.01,2013-07-28 17:43:00,
2013-07-28 13:45:00,87.9,76.5,29.97,North,0,0.6,0.6,69,0.00,,---,0.04,VWS V13.01,2013-07-28 17:45:00,
2013-07-28 13:46:00,87.9,76.5,29.97,NE,45,3.1,3.1,69,0.00,,---,0.04,VWS V13.01,2013-07-28 17:46:00,
2013-07-28 13:48:00,88.1,76.7,29.98,NE,45,1.5,1.5,69,0.00,,---,0.04,VWS V13.01,2013-07-28 17:48:00,
2013-07-28 13:49:00,88.3,76.4,29.97,ENE,68,5.3,5.3,68,0.00,,---,0.04,VWS V13.01,2013-07-28 17:49:00,
2013-07-28 13:50:00,88.5,76.6,29.97,ESE,112,4.2,4.2,68,0.00,,---,0.04,VWS V13.01,2013-07-28 17:50:00,
2013-07-28 13:51:00,88.5,76.6,29.97,ESE,112,4.2,4.2,68,0.00,,---,0.04,VWS V13.01,2013-07-28 17:51:00,
2013-07-28 13:53:00,88.7,76.8,29.96,NNE,22,6.4,6.4,68,0.00,,---,0.04,VWS V13.01,2013-07-28 17:53:00,
2013-07-28 13:54:00,88.8,76.9,29.96,North,0,3.3,3.3,68,0.00,,---,0.04,VWS V13.01,2013-07-28 17:54:00,
2013-07-28 13:55:00,88.7,76.3,29.96,ENE,68,6.0,6.0,67,0.00,,---,0.04,VWS V13.01,2013-07-28 17:55:00,
2013-07-28 13:56:00,88.7,76.3,29.96,ENE,68,6.0,6.0,67,0.00,,---,0.04,VWS V13.01,2013-07-28 17:56:00,
2013-07-28 13:58:00,88.7,76.3,29.97,North,0,4.6,4.6,67,0.00,,---,0.04,VWS V13.01,2013-07-28 17:58:00,
2013-07-28 14:00:00,88.5,76.2,29.96,ENE,68,0.0,0.0,67,0.00,,---,0.04,VWS V13.01,2013-07-28 18:00:00,
2013-07-28 14:01:00,88.5,76.6,29.96,ENE,68,1.7,1.7,68,0.00,,---,0.04,VWS V13.01,2013-07-28 18:01:00,
2013-07-28 14:03:00,88.5,76.6,29.96,ENE,68,3.8,3.8,68,0.00,,---,0.04,VWS V13.01,2013-07-28 18:03:00,
2013-07-28 14:05:00,88.5,76.6,29.96,ESE,112,3.3,3.3,68,0.00,,---,0.04,VWS V13.01,2013-07-28 18:05:00,
2013-07-28 14:06:00,88.7,76.8,29.96,NE,45,6.7,6.7,68,0.00,,---,0.04,VWS V13.01,2013-07-28 18:06:00,
2013-07-28 14:07:00,88.8,76.4,29.96,ENE,68,1.5,1.5,67,0.00,,---,0.04,VWS V13.01,2013-07-28 18:07:00,
2013-07-28 14:08:00,88.8,76.4,29.96,NNE,22,7.3,7.3,67,0.00,,---,0.04,VWS V13.01,2013-07-28 18:08:00,
2013-07-28 14:10:00,88.8,76.4,29.96,North,0,6.0,6.0,67,0.00,,---,0.04,VWS V13.01,2013-07-28 18:10:00,
2013-07-28 14:11:00,88.8,76.4,29.96,ENE,68,5.8,5.8,67,0.00,,---,0.04,VWS V13.01,2013-07-28 18:11:00,
2013-07-28 14:12:00,89.0,76.6,29.96,NNE,22,7.1,7.1,67,0.00,,---,0.04,VWS V13.01,2013-07-28 18:12:00,
2013-07-28 14:13:00,89.0,76.6,29.96,North,0,4.2,4.2,67,0.00,,---,0.04,VWS V13.01,2013-07-28 18:13:00,
2013-07-28 14:15:00,88.8,76.4,29.96,North,0,6.0,6.0,67,0.00,,---,0.04,VWS V13.01,2013-07-28 18:15:00,
2013-07-28 14:16:00,88.8,76.4,29.96,ENE,68,6.0,6.0,67,0.00,,---,0.04,VWS V13.01,2013-07-28 18:16:00,
2013-07-28 14:17:00,88.8,76.4,29.96,North,0,4.9,4.9,67,0.00,,---,0.04,VWS V13.01,2013-07-28 18:17:00,
2013-07-28 14:18:00,89.0,76.6,29.96,NNE,22,8.9,8.9,67,0.00,,---,0.04,VWS V13.01,2013-07-28 18:18:00,
2013-07-28 14:20:00,89.2,76.8,29.96,ENE,68,1.5,1.5,67,0.00,,---,0.04,VWS V13.01,2013-07-28 18:20:00,
2013-07-28 14:21:00,89.2,76.8,29.96,NE,45,6.4,6.4,67,0.00,,---,0.04,VWS V13.01,2013-07-28 18:21:00,
2013-07-28 14:22:00,89.4,77.0,29.96,NE,45,6.2,6.2,67,0.00,,---,0.04,VWS V13.01,2013-07-28 18:22:00,
2013-07-28 14:23:00,89.2,76.8,29.96,ENE,68,7.8,7.8,67,0.00,,---,0.04,VWS V13.01,2013-07-28 18:23:00,
2013-07-28 14:25:00,89.4,76.6,29.96,ENE,68,2.2,2.2,66,0.00,,---,0.04,VWS V13.01,2013-07-28 18:25:00,
2013-07-28 14:26:00,89.4,76.6,29.95,ENE,68,2.9,2.9,66,0.00,,---,0.04,VWS V13.01,2013-07-28 18:26:00,
2013-07-28 14:27:00,89.7,76.8,29.96,East,90,0.8,0.8,66,0.00,,---,0.04,VWS V13.01,2013-07-28 18:27:00,
2013-07-28 14:28:00,89.7,76.8,29.96,East,90,0.8,0.8,66,0.00,,---,0.04,VWS V13.01,2013-07-28 18:28:00,
2013-07-28 14:30:00,90.1,77.2,29.96,NNE,22,2.2,2.2,66,0.00,,---,0.04,VWS V13.01,2013-07-28 18:30:00,
2013-07-28 14:31:00,90.1,77.2,29.96,ESE,112,3.1,3.1,66,0.00,,---,0.04,VWS V13.01,2013-07-28 18:31:00,
2013-07-28 14:32:00,90.3,77.4,29.96,NE,45,4.0,4.0,66,0.00,,---,0.04,VWS V13.01,2013-07-28 18:32:00,
2013-07-28 14:33:00,90.3,77.4,29.96,NE,45,4.0,4.0,66,0.00,,---,0.04,VWS V13.01,2013-07-28 18:33:00,
2013-07-28 14:35:00,90.3,76.9,29.96,NNE,22,4.4,4.4,65,0.00,,---,0.04,VWS V13.01,2013-07-28 18:35:00,
2013-07-28 14:36:00,90.3,76.9,29.96,East,90,2.2,2.2,65,0.00,,---,0.04,VWS V13.01,2013-07-28 18:36:00,
2013-07-28 14:37:00,90.3,77.4,29.96,ENE,68,6.7,6.7,66,0.00,,---,0.04,VWS V13.01,2013-07-28 18:37:00,
2013-07-28 14:38:00,90.3,77.4,29.96,ENE,68,6.7,6.7,66,0.00,,---,0.04,VWS V13.01,2013-07-28 18:38:00,
2013-07-28 14:40:00,90.3,76.9,29.96,ENE,68,5.1,5.1,65,0.00,,---,0.04,VWS V13.01,2013-07-28 18:40:00,
2013-07-28 14:41:00,90.3,76.9,29.96,ENE,68,2.4,2.4,65,0.00,,---,0.04,VWS V13.01,2013-07-28 18:41:00,
2013-07-28 14:42:00,90.3,76.9,29.96,East,90,4.6,4.6,65,0.00,,---,0.04,VWS V13.01,2013-07-28 18:42:00,
2013-07-28 14:43:00,90.3,76.9,29.96,East,90,4.6,4.6,65,0.00,,---,0.04,VWS V13.01,2013-07-28 18:43:00,
2013-07-28 14:45:00,90.6,77.2,29.96,NE,45,2.0,2.0,65,0.00,,---,0.04,VWS V13.01,2013-07-28 18:45:00,
2013-07-28 14:46:00,90.6,77.2,29.96,East,90,5.5,5.5,65,0.00,,---,0.04,VWS V13.01,2013-07-28 18:46:00,
2013-07-28 14:47:00,90.8,77.4,29.96,ENE,68,3.8,3.8,65,0.00,,---,0.04,VWS V13.01,2013-07-28 18:47:00,
2013-07-28 14:48:00,90.8,77.4,29.96,ENE,68,3.8,3.8,65,0.00,,---,0.04,VWS V13.01,2013-07-28 18:48:00,
2013-07-28 14:50:00,91.0,77.6,29.96,North,0,4.2,4.2,65,0.00,,---,0.04,VWS V13.01,2013-07-28 18:50:00,
2013-07-28 14:52:00,91.0,77.1,29.96,ENE,68,2.4,2.4,64,0.00,,---,0.04,VWS V13.01,2013-07-28 18:52:00,
2013-07-28 14:53:00,91.0,77.1,29.96,NNE,22,2.2,2.2,64,0.00,,---,0.04,VWS V13.01,2013-07-28 18:53:00,
2013-07-28 14:55:00,91.0,77.1,29.95,ENE,68,4.6,4.6,64,0.00,,---,0.04,VWS V13.01,2013-07-28 18:55:00,
2013-07-28 14:57:00,91.2,77.3,29.96,ENE,68,6.2,6.2,64,0.00,,---,0.04,VWS V13.01,2013-07-28 18:57:00,
2013-07-28 14:58:00,91.2,77.3,29.96,East,90,8.0,8.0,64,0.00,,---,0.04,VWS V13.01,2013-07-28 18:58:00,
2013-07-28 15:00:00,91.5,77.6,29.96,ENE,68,3.8,3.8,64,0.00,,---,0.04,VWS V13.01,2013-07-28 19:00:00,
2013-07-28 15:02:00,91.5,77.6,29.96,ESE,112,5.5,5.5,64,0.00,,---,0.04,VWS V13.01,2013-07-28 19:02:00,
2013-07-28 15:03:00,91.5,77.6,29.96,East,90,6.9,6.9,64,0.00,,---,0.04,VWS V13.01,2013-07-28 19:03:00,
2013-07-28 15:05:00,91.2,77.3,29.96,ESE,112,4.2,4.2,64,0.00,,---,0.04,VWS V13.01,2013-07-28 19:05:00,
2013-07-28 15:07:00,91.2,77.3,29.96,ENE,68,9.6,9.6,64,0.00,,---,0.04,VWS V13.01,2013-07-28 19:07:00,
2013-07-28 15:08:00,91.2,77.3,29.96,East,90,5.3,5.3,64,0.00,,---,0.04,VWS V13.01,2013-07-28 19:08:00,
2013-07-28 15:10:00,90.5,76.7,29.96,ENE,68,3.1,3.1,64,0.00,,---,0.04,VWS V13.01,2013-07-28 19:10:00,
2013-07-28 15:12:00,90.5,77.1,29.96,East,90,5.8,5.8,65,0.00,,---,0.04,VWS V13.01,2013-07-28 19:12:00,
2013-07-28 15:13:00,90.1,76.8,29.96,NE,45,4.6,4.6,65,0.00,,---,0.04,VWS V13.01,2013-07-28 19:13:00,
2013-07-28 15:15:00,89.7,76.8,29.96,East,90,4.4,4.4,66,0.00,,---,0.04,VWS V13.01,2013-07-28 19:15:00,
2013-07-28 15:17:00,89.7,76.8,29.96,ENE,68,3.3,3.3,66,0.00,,---,0.04,VWS V13.01,2013-07-28 19:17:00,
2013-07-28 15:18:00,89.7,76.8,29.96,ENE,68,4.6,4.6,66,0.00,,---,0.04,VWS V13.01,2013-07-28 19:18:00,
2013-07-28 15:20:00,89.2,76.4,29.96,ENE,68,0.0,0.0,66,0.00,,---,0.04,VWS V13.01,2013-07-28 19:20:00,
2013-07-28 15:22:00,89.2,76.4,29.96,ENE,68,0.0,0.0,66,0.00,,---,0.04,VWS V13.01,2013-07-28 19:22:00,
2013-07-28 15:23:00,89.2,76.8,29.96,ENE,68,2.2,2.2,67,0.00,,---,0.04,VWS V13.01,2013-07-28 19:23:00,
2013-07-28 15:25:00,88.8,76.4,29.96,East,90,2.9,2.9,67,0.00,,---,0.04,VWS V13.01,2013-07-28 19:25:00,
2013-07-28 15:27:00,88.8,76.4,29.96,NNE,22,4.2,4.2,67,0.00,,---,0.04,VWS V13.01,2013-07-28 19:27:00,
2013-07-28 15:28:00,88.8,76.4,29.96,ENE,68,2.4,2.4,67,0.00,,---,0.04,VWS V13.01,2013-07-28 19:28:00,
2013-07-28 15:30:00,88.5,76.6,29.96,NE,45,2.9,2.9,68,0.00,,---,0.04,VWS V13.01,2013-07-28 19:30:00,
2013-07-28 15:32:00,88.3,76.4,29.96,NNW,338,3.8,3.8,68,0.00,,---,0.04,VWS V13.01,2013-07-28 19:32:00,
2013-07-28 15:33:00,88.3,76.4,29.96,NNW,338,3.8,3.8,68,0.00,,---,0.04,VWS V13.01,2013-07-28 19:33:00,
2013-07-28 15:35:00,87.9,76.0,29.96,East,90,5.3,5.3,68,0.00,,---,0.04,VWS V13.01,2013-07-28 19:35:00,
2013-07-28 15:37:00,87.9,76.5,29.96,NE,45,1.7,1.7,69,0.00,,---,0.04,VWS V13.01,2013-07-28 19:37:00,
2013-07-28 15:38:00,87.9,76.5,29.96,NE,45,1.7,1.7,69,0.00,,---,0.04,VWS V13.01,2013-07-28 19:38:00,
2013-07-28 15:40:00,87.9,76.5,29.96,ENE,68,2.0,2.0,69,0.00,,---,0.04,VWS V13.01,2013-07-28 19:40:00,
2013-07-28 15:42:00,87.8,76.4,29.96,ENE,68,3.8,3.8,69,0.00,,---,0.04,VWS V13.01,2013-07-28 19:42:00,
2013-07-28 15:43:00,87.8,76.4,29.96,ENE,68,3.8,3.8,69,0.00,,---,0.04,VWS V13.01,2013-07-28 19:43:00,
2013-07-28 15:45:00,87.8,76.4,29.96,East,90,0.0,0.0,69,0.00,,---,0.04,VWS V13.01,2013-07-28 19:45:00,
2013-07-28 15:46:00,87.8,76.4,29.96,East,90,0.0,0.0,69,0.00,,---,0.04,VWS V13.01,2013-07-28 19:46:00,
2013-07-28 15:47:00,87.8,76.4,29.96,ESE,112,0.0,4.9,69,0.00,,---,0.04,VWS V13.01,2013-07-28 19:47:00,
2013-07-28 15:48:00,87.8,76.4,29.96,ESE,112,0.0,0.0,69,0.00,,---,0.04,VWS V13.01,2013-07-28 19:48:00,
2013-07-28 15:51:00,87.8,76.4,29.95,NE,45,3.3,3.3,69,0.00,,---,0.04,VWS V13.01,2013-07-28 19:51:00,
2013-07-28 15:52:00,87.6,76.2,29.95,ENE,68,6.4,7.1,69,0.00,,---,0.04,VWS V13.01,2013-07-28 19:52:00,
2013-07-28 15:53:00,87.6,76.2,29.95,ENE,68,6.4,6.4,69,0.00,,---,0.04,VWS V13.01,2013-07-28 19:53:00,
2013-07-28 15:56:00,87.6,76.2,29.96,ENE,68,2.9,2.9,69,0.00,,---,0.04,VWS V13.01,2013-07-28 19:56:00,
2013-07-28 15:57:00,87.6,76.2,29.95,NE,45,0.8,0.8,69,0.00,,---,0.04,VWS V13.01,2013-07-28 19:57:00,
2013-07-28 15:58:00,87.6,76.2,29.95,NE,45,0.8,0.8,69,0.00,,---,0.04,VWS V13.01,2013-07-28 19:58:00,
2013-07-28 16:01:00,87.6,76.2,29.95,ENE,68,3.1,3.1,69,0.00,,---,0.04,VWS V13.01,2013-07-28 20:01:00,
2013-07-28 16:02:00,87.6,76.2,29.95,East,90,1.5,1.5,69,0.00,,---,0.04,VWS V13.01,2013-07-28 20:02:00,
2013-07-28 16:03:00,87.6,76.2,29.95,East,90,1.5,1.5,69,0.00,,---,0.04,VWS V13.01,2013-07-28 20:03:00,
2013-07-28 16:06:00,87.6,76.2,29.95,ENE,68,0.0,0.0,69,0.00,,---,0.04,VWS V13.01,2013-07-28 20:06:00,
2013-07-28 16:07:00,87.4,76.0,29.95,East,90,5.1,5.1,69,0.00,,---,0.04,VWS V13.01,2013-07-28 20:07:00,
2013-07-28 16:08:00,87.4,76.0,29.95,East,90,5.1,5.1,69,0.00,,---,0.04,VWS V13.01,2013-07-28 20:08:00,
2013-07-28 16:09:00,87.4,76.0,29.95,ENE,68,2.0,2.0,69,0.00,,---,0.04,VWS V13.01,2013-07-28 20:09:00,
2013-07-28 16:11:00,87.4,76.0,29.95,East,90,2.4,2.4,69,0.00,,---,0.04,VWS V13.01,2013-07-28 20:11:00,
2013-07-28 16:12:00,87.4,76.0,29.95,ENE,68,4.6,4.6,69,0.00,,---,0.04,VWS V13.01,2013-07-28 20:12:00,
2013-07-28 16:13:00,87.4,76.0,29.95,ENE,68,4.6,4.6,69,0.00,,---,0.04,VWS V13.01,2013-07-28 20:13:00,
2013-07-28 16:14:00,87.4,76.0,29.95,ENE,68,3.1,3.1,69,0.00,,---,0.04,VWS V13.01,2013-07-28 20:14:00,
2013-07-28 16:16:00,87.6,76.2,29.95,NNE,22,0.0,0.0,69,0.00,,---,0.04,VWS V13.01,2013-07-28 20:16:00,
2013-07-28 16:17:00,87.6,76.6,29.94,ENE,68,2.0,2.0,70,0.00,,---,0.04,VWS V13.01,2013-07-28 20:17:00,
2013-07-28 16:18:00,87.6,76.6,29.94,ENE,68,2.0,2.0,70,0.00,,---,0.04,VWS V13.01,2013-07-28 20:18:00,
2013-07-28 16:19:00,87.6,76.6,29.95,NE,45,4.0,4.0,70,0.00,,---,0.04,VWS V13.01,2013-07-28 20:19:00,
2013-07-28 16:21:00,87.6,76.6,29.95,ENE,68,2.4,2.4,70,0.00,,---,0.04,VWS V13.01,2013-07-28 20:21:00,
2013-07-28 16:22:00,87.6,76.6,29.95,NE,45,2.2,2.2,70,0.00,,---,0.04,VWS V13.01,2013-07-28 20:22:00,
2013-07-28 16:23:00,87.6,76.6,29.95,NE,45,2.2,2.2,70,0.00,,---,0.04,VWS V13.01,2013-07-28 20:23:00,
2013-07-28 16:24:00,87.6,76.6,29.95,ENE,68,4.4,4.4,70,0.00,,---,0.04,VWS V13.01,2013-07-28 20:24:00,
2013-07-28 16:26:00,87.8,76.8,29.95,East,90,4.2,4.2,70,0.00,,---,0.04,VWS V13.01,2013-07-28 20:26:00,
2013-07-28 16:27:00,87.9,76.9,29.95,ENE,68,1.5,1.5,70,0.00,,---,0.04,VWS V13.01,2013-07-28 20:27:00,
2013-07-28 16:28:00,87.9,76.9,29.95,ENE,68,1.5,1.5,70,0.00,,---,0.04,VWS V13.01,2013-07-28 20:28:00,
2013-07-28 16:29:00,87.9,76.9,29.95,ENE,68,0.0,0.0,70,0.00,,---,0.04,VWS V13.01,2013-07-28 20:29:00,
2013-07-28 16:32:00,88.1,76.7,29.95,East,90,2.0,2.0,69,0.00,,---,0.04,VWS V13.01,2013-07-28 20:32:00,
2013-07-28 16:33:00,88.1,76.7,29.95,East,90,2.9,2.9,69,0.00,,---,0.04,VWS V13.01,2013-07-28 20:33:00,
2013-07-28 16:34:00,88.1,76.7,29.95,East,90,2.9,2.9,69,0.00,,---,0.04,VWS V13.01,2013-07-28 20:34:00,
2013-07-28 16:37:00,88.3,76.8,29.95,ENE,68,2.0,2.0,69,0.00,,---,0.04,VWS V13.01,2013-07-28 20:37:00,
2013-07-28 16:38:00,88.5,77.0,29.95,ESE,112,2.6,2.6,69,0.00,,---,0.04,VWS V13.01,2013-07-28 20:38:00,
2013-07-28 16:39:00,88.5,77.0,29.95,ENE,68,6.4,6.4,69,0.00,,---,0.04,VWS V13.01,2013-07-28 20:39:00,
2013-07-28 16:42:00,88.8,76.9,29.95,ENE,68,7.3,7.3,68,0.00,,---,0.04,VWS V13.01,2013-07-28 20:42:00,
2013-07-28 16:43:00,89.0,77.1,29.95,East,90,3.3,3.3,68,0.00,,---,0.04,VWS V13.01,2013-07-28 20:43:00,
2013-07-28 16:44:00,89.2,77.3,29.95,ENE,68,3.8,3.8,68,0.00,,---,0.04,VWS V13.01,2013-07-28 20:44:00,
2013-07-28 16:47:00,90.1,77.7,29.95,East,90,5.3,5.3,67,0.00,,---,0.04,VWS V13.01,2013-07-28 20:47:00,
2013-07-28 16:48:00,90.1,77.7,29.95,East,90,5.3,5.3,67,0.00,,---,0.04,VWS V13.01,2013-07-28 20:48:00,
2013-07-28 16:49:00,90.3,77.9,29.95,ENE,68,5.1,5.1,67,0.00,,---,0.04,VWS V13.01,2013-07-28 20:49:00,
2013-07-28 16:52:00,90.8,77.9,29.94,ENE,68,7.3,7.3,66,0.00,,---,0.04,VWS V13.01,2013-07-28 20:52:00,
2013-07-28 16:53:00,90.8,77.9,29.94,ENE,68,7.3,7.3,66,0.00,,---,0.04,VWS V13.01,2013-07-28 20:53:00,
2013-07-28 16:54:00,91.0,77.6,29.94,East,90,6.0,6.0,65,0.00,,---,0.04,VWS V13.01,2013-07-28 20:54:00,
2013-07-28 16:57:00,91.2,77.8,29.95,East,90,6.2,6.2,65,0.00,,---,0.04,VWS V13.01,2013-07-28 20:57:00,
2013-07-28 16:58:00,91.2,77.8,29.95,East,90,6.2,6.2,65,0.00,,---,0.04,VWS V13.01,2013-07-28 20:58:00,
2013-07-28 16:59:00,91.2,77.8,29.95,ENE,68,8.0,8.0,65,0.00,,---,0.04,VWS V13.01,2013-07-28 20:59:00,
2013-07-28 17:02:00,90.6,77.2,29.94,NNE,22,3.5,3.5,65,0.00,,---,0.04,VWS V13.01,2013-07-28 21:02:00,
2013-07-28 17:03:00,90.6,77.2,29.94,NNE,22,3.5,3.5,65,0.00,,---,0.04,VWS V13.01,2013-07-28 21:03:00,
2013-07-28 17:04:00,90.6,77.2,29.94,ENE,68,2.2,2.2,65,0.00,,---,0.04,VWS V13.01,2013-07-28 21:04:00,
2013-07-28 17:08:00,90.5,77.6,29.95,East,90,3.5,3.5,66,0.00,,---,0.04,VWS V13.01,2013-07-28 21:08:00,
2013-07-28 17:09:00,90.5,77.6,29.95,East,90,3.5,3.5,66,0.00,,---,0.04,VWS V13.01,2013-07-28 21:09:00,
2013-07-28 17:13:00,90.6,77.7,29.95,ENE,68,10.2,10.2,66,0.00,,---,0.04,VWS V13.01,2013-07-28 21:13:00,
2013-07-28 17:14:00,90.6,77.2,29.95,ENE,68,8.7,8.7,65,0.00,,---,0.04,VWS V13.01,2013-07-28 21:14:00,
2013-07-28 17:18:00,91.0,77.1,29.95,ENE,68,3.8,3.8,64,0.00,,---,0.04,VWS V13.01,2013-07-28 21:18:00,
2013-07-28 17:19:00,91.0,77.1,29.95,ENE,68,4.9,4.9,64,0.00,,---,0.04,VWS V13.01,2013-07-28 21:19:00,
2013-07-28 17:23:00,91.2,77.3,29.95,ENE,68,7.8,7.8,64,0.00,,---,0.04,VWS V13.01,2013-07-28 21:23:00,
2013-07-28 17:24:00,91.2,77.3,29.95,ESE,112,4.2,4.2,64,0.00,,---,0.04,VWS V13.01,2013-07-28 21:24:00,
2013-07-28 17:28:00,91.7,77.3,29.95,NE,45,1.1,1.1,63,0.00,,---,0.04,VWS V13.01,2013-07-28 21:28:00,
2013-07-28 17:29:00,91.7,77.3,29.95,ENE,68,4.6,4.6,63,0.00,,---,0.04,VWS V13.01,2013-07-28 21:29:00,
2013-07-28 17:33:00,91.7,77.3,29.95,ESE,112,7.3,7.3,63,0.00,,---,0.04,VWS V13.01,2013-07-28 21:33:00,
2013-07-28 17:34:00,91.9,77.5,29.95,NE,45,5.3,5.3,63,0.00,,---,0.04,VWS V13.01,2013-07-28 21:34:00,
2013-07-28 17:38:00,91.7,77.3,29.95,NE,45,0.0,0.0,63,0.00,,---,0.04,VWS V13.01,2013-07-28 21:38:00,
2013-07-28 17:39:00,91.7,77.3,29.95,ENE,68,4.9,4.9,63,0.00,,---,0.04,VWS V13.01,2013-07-28 21:39:00,
2013-07-28 17:43:00,91.5,77.1,29.95,ENE,68,5.8,5.8,63,0.00,,---,0.04,VWS V13.01,2013-07-28 21:43:00,
2013-07-28 17:44:00,91.5,77.1,29.95,NE,45,4.4,4.4,63,0.00,,---,0.04,VWS V13.01,2013-07-28 21:44:00,
2013-07-28 17:48:00,91.4,77.0,29.95,NE,45,4.0,4.0,63,0.00,,---,0.04,VWS V13.01,2013-07-28 21:48:00,
2013-07-28 17:49:00,91.2,76.8,29.95,ENE,68,8.0,8.0,63,0.00,,---,0.04,VWS V13.01,2013-07-28 21:49:00,
2013-07-28 17:53:00,91.0,77.1,29.95,ENE,68,4.6,4.6,64,0.00,,---,0.04,VWS V13.01,2013-07-28 21:53:00,
2013-07-28 17:54:00,90.6,76.8,29.95,ENE,68,7.8,7.8,64,0.00,,---,0.04,VWS V13.01,2013-07-28 21:54:00,
2013-07-28 17:58:00,90.1,76.3,29.95,ENE,68,3.3,3.3,64,0.00,,---,0.04,VWS V13.01,2013-07-28 21:58:00,
2013-07-28 17:59:00,90.1,76.3,29.95,NNE,22,0.8,0.8,64,0.00,,---,0.04,VWS V13.01,2013-07-28 21:59:00,
2013-07-28 18:03:00,89.4,76.1,29.95,NE,45,4.2,4.2,65,0.00,,---,0.04,VWS V13.01,2013-07-28 22:03:00,
2013-07-28 18:04:00,89.4,76.1,29.95,ENE,68,6.0,6.0,65,0.00,,---,0.04,VWS V13.01,2013-07-28 22:04:00,
2013-07-28 18:08:00,88.8,75.5,29.95,ESE,112,5.1,5.1,65,0.00,,---,0.04,VWS V13.01,2013-07-28 22:08:00,
2013-07-28 18:09:00,88.8,75.5,29.95,East,90,5.3,5.3,65,0.00,,---,0.04,VWS V13.01,2013-07-28 22:09:00,
2013-07-28 18:13:00,88.3,75.5,29.95,ENE,68,4.6,4.6,66,0.00,,---,0.04,VWS V13.01,2013-07-28 22:13:00,
2013-07-28 18:14:00,88.3,75.5,29.95,ENE,68,2.4,2.4,66,0.00,,---,0.04,VWS V13.01,2013-07-28 22:14:00,
2013-07-28 18:18:00,87.9,75.6,29.95,ENE,68,0.8,0.8,67,0.00,,---,0.04,VWS V13.01,2013-07-28 22:18:00,
2013-07-28 18:19:00,87.9,75.6,29.95,ESE,112,3.8,3.8,67,0.00,,---,0.04,VWS V13.01,2013-07-28 22:19:00,
2013-07-28 18:23:00,87.6,75.3,29.95,ENE,68,2.4,2.4,67,0.00,,---,0.04,VWS V13.01,2013-07-28 22:23:00,
2013-07-28 18:24:00,87.4,75.1,29.95,East,90,3.1,3.1,67,0.00,,---,0.04,VWS V13.01,2013-07-28 22:24:00,
2013-07-28 18:28:00,87.0,75.2,29.95,East,90,1.1,1.1,68,0.00,,---,0.04,VWS V13.01,2013-07-28 22:28:00,
2013-07-28 18:29:00,87.0,75.2,29.95,East,90,1.3,1.3,68,0.00,,---,0.04,VWS V13.01,2013-07-28 22:29:00,
2013-07-28 18:33:00,86.9,75.5,29.95,East,90,0.0,0.0,69,0.00,,---,0.04,VWS V13.01,2013-07-28 22:33:00,
2013-07-28 18:34:00,86.9,75.5,29.95,East,90,1.7,1.7,69,0.00,,---,0.04,VWS V13.01,2013-07-28 22:34:00,
2013-07-28 18:38:00,86.7,75.3,29.96,ESE,112,4.0,4.0,69,0.00,,---,0.04,VWS V13.01,2013-07-28 22:38:00,
2013-07-28 18:39:00,86.7,75.3,29.95,ENE,68,2.0,2.0,69,0.00,,---,0.04,VWS V13.01,2013-07-28 22:39:00,
2013-07-28 18:40:00,86.7,75.3,29.95,East,90,4.6,4.6,69,0.00,,---,0.04,VWS V13.01,2013-07-28 22:40:00,
2013-07-28 18:43:00,86.5,75.1,29.96,East,90,0.0,0.0,69,0.00,,---,0.04,VWS V13.01,2013-07-28 22:43:00,
2013-07-28 18:44:00,86.5,75.1,29.96,SSE,158,0.0,0.0,69,0.00,,---,0.04,VWS V13.01,2013-07-28 22:44:00,
2013-07-28 18:45:00,86.3,74.9,29.96,East,90,4.4,4.4,69,0.00,,---,0.04,VWS V13.01,2013-07-28 22:45:00,
2013-07-28 18:48:00,86.3,74.9,29.96,ENE,68,3.3,3.3,69,0.00,,---,0.04,VWS V13.01,2013-07-28 22:48:00,
2013-07-28 18:49:00,86.3,74.9,29.96,East,90,3.8,3.8,69,0.00,,---,0.04,VWS V13.01,2013-07-28 22:49:00,
2013-07-28 18:50:00,86.1,74.8,29.96,East,90,4.6,4.6,69,0.00,,---,0.04,VWS V13.01,2013-07-28 22:50:00,
2013-07-28 18:53:00,86.1,74.8,29.96,ENE,68,6.7,6.7,69,0.00,,---,0.04,VWS V13.01,2013-07-28 22:53:00,
2013-07-28 18:54:00,86.1,74.8,29.96,ENE,68,6.7,6.7,69,0.00,,---,0.04,VWS V13.01,2013-07-28 22:54:00,
2013-07-28 18:55:00,86.0,74.7,29.96,East,90,2.2,2.2,69,0.00,,---,0.04,VWS V13.01,2013-07-28 22:55:00,
2013-07-28 18:58:00,85.8,74.9,29.96,ENE,68,6.2,6.2,70,0.00,,---,0.04,VWS V13.01,2013-07-28 22:58:00,
2013-07-28 18:59:00,85.8,74.9,29.96,ENE,68,6.2,6.2,70,0.00,,---,0.04,VWS V13.01,2013-07-28 22:59:00,
2013-07-28 19:00:00,85.8,74.9,29.96,ENE,68,7.8,7.8,70,0.00,,---,0.04,VWS V13.01,2013-07-28 23:00:00,
2013-07-28 19:03:00,85.8,74.9,29.96,East,90,2.0,2.0,70,0.00,,---,0.04,VWS V13.01,2013-07-28 23:03:00,
2013-07-28 19:04:00,85.8,74.9,29.96,East,90,2.0,2.0,70,0.00,,---,0.04,VWS V13.01,2013-07-28 23:04:00,
2013-07-28 19:05:00,85.8,74.9,29.96,ENE,68,0.0,0.0,70,0.00,,---,0.04,VWS V13.01,2013-07-28 23:05:00,
2013-07-28 19:08:00,85.8,74.9,29.96,ENE,68,4.4,4.4,70,0.00,,---,0.04,VWS V13.01,2013-07-28 23:08:00,
2013-07-28 19:09:00,85.8,74.9,29.96,ENE,68,4.4,4.4,70,0.00,,---,0.04,VWS V13.01,2013-07-28 23:09:00,
2013-07-28 19:10:00,85.8,74.9,29.96,ENE,68,2.0,2.0,70,0.00,,---,0.04,VWS V13.01,2013-07-28 23:10:00,
2013-07-28 19:13:00,85.8,75.3,29.97,ENE,68,2.2,2.2,71,0.00,,---,0.04,VWS V13.01,2013-07-28 23:13:00,
2013-07-28 19:14:00,85.8,75.3,29.97,ENE,68,2.2,2.2,71,0.00,,---,0.04,VWS V13.01,2013-07-28 23:14:00,
2013-07-28 19:15:00,85.8,75.3,29.97,ENE,68,4.6,4.6,71,0.00,,---,0.04,VWS V13.01,2013-07-28 23:15:00,
2013-07-28 19:18:00,85.8,75.3,29.97,SE,135,1.1,1.1,71,0.00,,---,0.04,VWS V13.01,2013-07-28 23:18:00,
2013-07-28 19:19:00,85.8,75.3,29.97,SE,135,1.1,1.1,71,0.00,,---,0.04,VWS V13.01,2013-07-28 23:19:00,
2013-07-28 19:20:00,85.8,75.3,29.96,ENE,68,0.0,0.0,71,0.00,,---,0.04,VWS V13.01,2013-07-28 23:20:00,
2013-07-28 19:23:00,85.6,75.1,29.96,ENE,68,3.1,3.1,71,0.00,,---,0.04,VWS V13.01,2013-07-28 23:23:00,
2013-07-28 19:24:00,85.6,75.1,29.96,ENE,68,3.1,3.1,71,0.00,,---,0.04,VWS V13.01,2013-07-28 23:24:00,
2013-07-28 19:25:00,85.6,75.1,29.96,ESE,112,3.3,3.3,71,0.00,,---,0.04,VWS V13.01,2013-07-28 23:25:00,
2013-07-28 19:28:00,85.6,75.5,29.96,ENE,68,3.3,3.3,72,0.00,,---,0.04,VWS V13.01,2013-07-28 23:28:00,
2013-07-28 19:29:00,85.6,75.5,29.96,ENE,68,3.3,3.3,72,0.00,,---,0.04,VWS V13.01,2013-07-28 23:29:00,
2013-07-28 19:30:00,85.6,75.5,29.96,ENE,68,0.0,0.0,72,0.00,,---,0.04,VWS V13.01,2013-07-28 23:30:00,
2013-07-28 19:33:00,85.6,75.5,29.97,NE,45,3.1,3.1,72,0.00,,---,0.04,VWS V13.01,2013-07-28 23:33:00,
2013-07-28 19:34:00,85.6,75.5,29.97,NE,45,3.1,3.1,72,0.00,,---,0.04,VWS V13.01,2013-07-28 23:34:00,
2013-07-28 19:35:00,85.6,75.5,29.97,ENE,68,2.0,2.0,72,0.00,,---,0.04,VWS V13.01,2013-07-28 23:35:00,
2013-07-28 19:38:00,85.6,75.5,29.97,East,90,4.6,4.6,72,0.00,,---,0.04,VWS V13.01,2013-07-28 23:38:00,
2013-07-28 19:39:00,85.6,75.5,29.97,East,90,4.6,4.6,72,0.00,,---,0.04,VWS V13.01,2013-07-28 23:39:00,
2013-07-28 19:40:00,85.6,75.5,29.97,ENE,68,1.1,1.1,72,0.00,,---,0.04,VWS V13.01,2013-07-28 23:40:00,
2013-07-28 19:43:00,85.4,75.3,29.97,ENE,68,3.1,3.1,72,0.00,,---,0.04,VWS V13.01,2013-07-28 23:43:00,
2013-07-28 19:44:00,85.4,75.3,29.97,ENE,68,3.1,3.1,72,0.00,,---,0.04,VWS V13.01,2013-07-28 23:44:00,
2013-07-28 19:45:00,85.4,75.3,29.97,NE,45,1.7,1.7,72,0.00,,---,0.04,VWS V13.01,2013-07-28 23:45:00,
2013-07-28 19:48:00,85.2,75.6,29.98,ENE,68,4.6,4.6,73,0.00,,---,0.04,VWS V13.01,2013-07-28 23:48:00,
2013-07-28 19:49:00,85.2,75.6,29.98,ENE,68,4.6,4.6,73,0.00,,---,0.04,VWS V13.01,2013-07-28 23:49:00,
2013-07-28 19:50:00,85.2,75.6,29.98,NE,45,4.4,4.4,73,0.00,,---,0.04,VWS V13.01,2013-07-28 23:50:00,
2013-07-28 19:53:00,85.1,75.5,29.98,SE,135,3.1,3.1,73,0.00,,---,0.04,VWS V13.01,2013-07-28 23:53:00,
2013-07-28 19:54:00,85.1,75.5,29.98,SE,135,3.1,3.1,73,0.00,,---,0.04,VWS V13.01,2013-07-28 23:54:00,
2013-07-28 19:55:00,85.1,75.5,29.98,NE,45,2.4,2.4,73,0.00,,---,0.04,VWS V13.01,2013-07-28 23:55:00,
2013-07-28 19:58:00,85.1,75.5,29.98,East,90,4.6,4.6,73,0.00,,---,0.04,VWS V13.01,2013-07-28 23:58:00,
2013-07-28 19:59:00,85.1,75.5,29.98,East,90,4.6,4.6,73,0.00,,---,0.04,VWS V13.01,2013-07-28 23:59:00,
2013-07-28 20:00:00,84.9,74.9,29.98,NE,45,0.8,5.3,72,0.00,,---,0.04,VWS V13.01,2013-07-29 00:00:00,
2013-07-28 20:03:00,84.9,74.9,29.98,East,90,3.1,3.1,72,0.00,,---,0.04,VWS V13.01,2013-07-29 00:03:00,
2013-07-28 20:04:00,84.9,74.9,29.98,East,90,3.1,3.1,72,0.00,,---,0.04,VWS V13.01,2013-07-29 00:04:00,
2013-07-28 20:05:00,84.9,75.3,29.98,ENE,68,2.0,4.4,73,0.00,,---,0.04,VWS V13.01,2013-07-29 00:05:00,
2013-07-28 20:08:00,84.9,75.3,29.98,East,90,3.8,3.8,73,0.00,,---,0.04,VWS V13.01,2013-07-29 00:08:00,
2013-07-28 20:09:00,84.9,75.3,29.98,East,90,3.8,3.8,73,0.00,,---,0.04,VWS V13.01,2013-07-29 00:09:00,
2013-07-28 20:10:00,84.9,75.3,29.98,East,90,1.7,1.7,73,0.00,,---,0.04,VWS V13.01,2013-07-29 00:10:00,
2013-07-28 20:13:00,84.7,75.1,29.98,ENE,68,3.8,3.8,73,0.00,,---,0.04,VWS V13.01,2013-07-29 00:13:00,
2013-07-28 20:14:00,84.7,75.1,29.98,ENE,68,3.8,3.8,73,0.00,,---,0.04,VWS V13.01,2013-07-29 00:14:00,
2013-07-28 20:15:00,84.7,75.1,29.98,ENE,68,4.2,5.3,73,0.00,,---,0.04,VWS V13.01,2013-07-29 00:15:00,
2013-07-28 20:18:00,84.7,75.1,29.98,ENE,68,2.9,2.9,73,0.00,,---,0.04,VWS V13.01,2013-07-29 00:18:00,
2013-07-28 20:19:00,84.7,75.1,29.98,ENE,68,2.9,2.9,73,0.00,,---,0.04,VWS V13.01,2013-07-29 00:19:00,
2013-07-28 20:20:00,84.7,75.1,29.98,East,90,4.4,4.4,73,0.00,,---,0.04,VWS V13.01,2013-07-29 00:20:00,
2013-07-28 20:23:00,84.7,75.1,29.98,ENE,68,5.1,5.1,73,0.00,,---,0.04,VWS V13.01,2013-07-29 00:23:00,
2013-07-28 20:24:00,84.7,75.1,29.98,ENE,68,5.1,5.1,73,0.00,,---,0.04,VWS V13.01,2013-07-29 00:24:00,
2013-07-28 20:25:00,84.7,75.1,29.98,ENE,68,1.7,1.7,73,0.00,,---,0.04,VWS V13.01,2013-07-29 00:25:00,
2013-07-28 20:28:00,84.7,75.1,29.98,SE,135,2.0,2.0,73,0.00,,---,0.04,VWS V13.01,2013-07-29 00:28:00,
2013-07-28 20:29:00,84.7,75.1,29.98,SE,135,2.0,2.0,73,0.00,,---,0.04,VWS V13.01,2013-07-29 00:29:00,
2013-07-28 20:30:00,84.7,75.1,29.98,ESE,112,1.5,2.2,73,0.00,,---,0.04,VWS V13.01,2013-07-29 00:30:00,
2013-07-28 20:33:00,84.7,75.1,29.98,East,90,3.5,3.5,73,0.00,,---,0.04,VWS V13.01,2013-07-29 00:33:00,
2013-07-28 20:34:00,84.7,75.1,29.98,East,90,3.5,3.5,73,0.00,,---,0.04,VWS V13.01,2013-07-29 00:34:00,
2013-07-28 20:35:00,84.7,75.1,29.99,East,90,1.5,1.5,73,0.00,,---,0.04,VWS V13.01,2013-07-29 00:35:00,
2013-07-28 20:38:00,84.7,75.1,29.99,ENE,68,4.6,4.6,73,0.00,,---,0.04,VWS V13.01,2013-07-29 00:38:00,
2013-07-28 20:39:00,84.7,75.1,29.99,ENE,68,4.6,4.6,73,0.00,,---,0.04,VWS V13.01,2013-07-29 00:39:00,
2013-07-28 20:40:00,84.7,75.1,29.98,ENE,68,1.1,1.1,73,0.00,,---,0.04,VWS V13.01,2013-07-29 00:40:00,
2013-07-28 20:44:00,84.7,75.1,29.98,ENE,68,0.0,0.0,73,0.00,,---,0.04,VWS V13.01,2013-07-29 00:44:00,
2013-07-28 20:45:00,84.7,75.1,29.98,NE,45,0.0,1.5,73,0.00,,---,0.04,VWS V13.01,2013-07-29 00:45:00,
2013-07-28 20:48:00,84.5,74.9,29.98,East,90,0.0,0.0,73,0.00,,---,0.04,VWS V13.01,2013-07-29 00:48:00,
2013-07-28 20:49:00,84.5,74.9,29.98,East,90,0.0,0.0,73,0.00,,---,0.04,VWS V13.01,2013-07-29 00:49:00,
2013-07-28 20:50:00,84.5,74.9,29.98,ESE,112,0.8,0.8,73,0.00,,---,0.04,VWS V13.01,2013-07-29 00:50:00,
2013-07-28 20:54:00,84.5,74.9,29.99,ESE,112,0.0,0.0,73,0.00,,---,0.04,VWS V13.01,2013-07-29 00:54:00,
2013-07-28 20:55:00,84.3,74.7,29.99,ESE,112,0.0,0.0,73,0.00,,---,0.04,VWS V13.01,2013-07-29 00:55:00,
2013-07-28 20:59:00,84.3,74.7,29.99,ENE,68,1.1,1.1,73,0.00,,---,0.04,VWS V13.01,2013-07-29 00:59:00,
2013-07-28 21:00:00,84.3,74.7,29.99,ENE,68,2.0,2.0,73,0.00,,---,0.04,VWS V13.01,2013-07-29 01:00:00,
2013-07-28 21:04:00,84.3,74.7,29.99,ENE,68,0.8,0.8,73,0.00,,---,0.04,VWS V13.01,2013-07-29 01:04:00,
2013-07-28 21:05:00,84.3,74.7,29.98,SE,135,2.6,2.6,73,0.00,,---,0.04,VWS V13.01,2013-07-29 01:05:00,
2013-07-28 21:09:00,84.3,74.7,29.98,North,0,0.0,0.0,73,0.00,,---,0.04,VWS V13.01,2013-07-29 01:09:00,
2013-07-28 21:10:00,84.3,74.7,29.98,ESE,112,1.7,1.7,73,0.00,,---,0.04,VWS V13.01,2013-07-29 01:10:00,
2013-07-28 21:14:00,84.3,74.7,29.98,SE,135,0.0,0.0,73,0.00,,---,0.04,VWS V13.01,2013-07-29 01:14:00,
2013-07-28 21:15:00,84.3,74.7,29.98,East,90,0.0,0.0,73,0.00,,---,0.04,VWS V13.01,2013-07-29 01:15:00,
2013-07-28 21:16:00,84.3,74.7,29.98,East,90,0.0,0.0,73,0.00,,---,0.04,VWS V13.01,2013-07-29 01:16:00,
2013-07-28 21:19:00,84.3,75.1,29.98,ESE,112,0.0,2.4,74,0.00,,---,0.04,VWS V13.01,2013-07-29 01:19:00,
2013-07-28 21:21:00,84.3,75.1,29.98,SE,135,0.0,0.0,74,0.00,,---,0.04,VWS V13.01,2013-07-29 01:21:00,
2013-07-28 21:25:00,84.2,75.0,29.99,ESE,112,0.0,0.0,74,0.00,,---,0.04,VWS V13.01,2013-07-29 01:25:00,
2013-07-28 21:26:00,84.2,75.0,29.99,ESE,112,1.1,1.1,74,0.00,,---,0.04,VWS V13.01,2013-07-29 01:26:00,
2013-07-28 21:30:00,84.2,75.0,29.98,ENE,68,2.0,2.0,74,0.00,,---,0.04,VWS V13.01,2013-07-29 01:30:00,
2013-07-28 21:31:00,84.2,75.0,29.98,ENE,68,1.1,1.1,74,0.00,,---,0.04,VWS V13.01,2013-07-29 01:31:00,
2013-07-28 21:32:00,84.2,75.0,29.98,ENE,68,1.1,1.1,74,0.00,,---,0.04,VWS V13.01,2013-07-29 01:32:00,
2013-07-28 21:35:00,84.0,74.8,29.98,ENE,68,3.3,3.3,74,0.00,,---,0.04,VWS V13.01,2013-07-29 01:35:00,
2013-07-28 21:37:00,84.0,74.8,29.98,ENE,68,4.6,4.6,74,0.00,,---,0.04,VWS V13.01,2013-07-29 01:37:00,
2013-07-28 21:40:00,84.0,74.8,29.99,ENE,68,2.2,2.2,74,0.00,,---,0.04,VWS V13.01,2013-07-29 01:40:00,
2013-07-28 21:42:00,84.0,74.4,29.99,ESE,112,0.8,0.8,73,0.00,,---,0.04,VWS V13.01,2013-07-29 01:42:00,
2013-07-28 21:45:00,84.0,74.8,29.99,South,180,0.0,0.0,74,0.00,,---,0.04,VWS V13.01,2013-07-29 01:45:00,
2013-07-28 21:47:00,84.0,74.8,29.99,SE,135,0.0,0.0,74,0.00,,---,0.04,VWS V13.01,2013-07-29 01:47:00,
2013-07-28 21:50:00,84.0,74.8,29.99,SE,135,0.0,0.0,74,0.00,,---,0.04,VWS V13.01,2013-07-29 01:50:00,
2013-07-28 21:52:00,83.8,74.6,29.99,ESE,112,0.0,0.0,74,0.00,,---,0.04,VWS V13.01,2013-07-29 01:52:00,
2013-07-28 21:55:00,83.8,74.6,29.99,East,90,0.0,0.0,74,0.00,,---,0.04,VWS V13.01,2013-07-29 01:55:00,
2013-07-28 21:56:00,83.8,74.6,29.99,SE,135,0.0,0.0,74,0.00,,---,0.04,VWS V13.01,2013-07-29 01:56:00,
2013-07-28 21:57:00,83.8,74.6,29.99,ESE,112,0.0,0.0,74,0.00,,---,0.04,VWS V13.01,2013-07-29 01:57:00,
2013-07-28 21:58:00,83.8,74.6,29.99,ESE,112,0.0,0.0,74,0.00,,---,0.04,VWS V13.01,2013-07-29 01:58:00,
2013-07-28 22:01:00,83.8,74.6,29.99,SE,135,1.3,1.3,74,0.00,,---,0.04,VWS V13.01,2013-07-29 02:01:00,
2013-07-28 22:02:00,83.8,74.6,30.00,East,90,2.2,2.2,74,0.00,,---,0.04,VWS V13.01,2013-07-29 02:02:00,
2013-07-28 22:03:00,83.8,74.6,30.00,East,90,2.2,2.2,74,0.00,,---,0.04,VWS V13.01,2013-07-29 02:03:00,
2013-07-28 22:07:00,83.8,74.6,30.00,East,90,0.0,0.0,74,0.00,,---,0.04,VWS V13.01,2013-07-29 02:07:00,
2013-07-28 22:08:00,83.8,74.6,29.99,ESE,112,0.0,1.7,74,0.00,,---,0.04,VWS V13.01,2013-07-29 02:08:00,
2013-07-28 22:12:00,83.8,74.6,29.99,ESE,112,0.0,0.0,74,0.00,,---,0.04,VWS V13.01,2013-07-29 02:12:00,
2013-07-28 22:13:00,83.8,74.6,29.99,SE,135,2.2,2.2,74,0.00,,---,0.04,VWS V13.01,2013-07-29 02:13:00,
2013-07-28 22:17:00,83.6,74.8,30.00,ESE,112,0.0,0.8,75,0.00,,---,0.04,VWS V13.01,2013-07-29 02:17:00,
2013-07-28 22:18:00,83.6,74.8,30.00,ESE,112,0.0,0.0,75,0.00,,---,0.04,VWS V13.01,2013-07-29 02:18:00,
2013-07-28 22:22:00,83.4,74.7,30.00,SE,135,2.4,2.4,75,0.00,,---,0.04,VWS V13.01,2013-07-29 02:22:00,
2013-07-28 22:23:00,83.4,74.7,30.00,SE,135,2.4,2.4,75,0.00,,---,0.04,VWS V13.01,2013-07-29 02:23:00,
2013-07-28 22:27:00,83.4,74.7,30.00,SE,135,0.0,0.0,75,0.00,,---,0.04,VWS V13.01,2013-07-29 02:27:00,
2013-07-28 22:28:00,83.4,74.7,30.00,SE,135,0.0,0.0,75,0.00,,---,0.04,VWS V13.01,2013-07-29 02:28:00,
2013-07-28 22:32:00,83.4,74.7,29.99,ESE,112,0.0,0.0,75,0.00,,---,0.04,VWS V13.01,2013-07-29 02:32:00,
2013-07-28 22:33:00,83.4,74.7,29.99,ESE,112,0.0,0.0,75,0.00,,---,0.04,VWS V13.01,2013-07-29 02:33:00,
2013-07-28 22:34:00,83.4,74.7,30.00,SSE,158,0.0,0.0,75,0.00,,---,0.04,VWS V13.01,2013-07-29 02:34:00,
2013-07-28 22:38:00,83.4,74.7,30.00,SSE,158,0.0,0.0,75,0.00,,---,0.04,VWS V13.01,2013-07-29 02:38:00,
2013-07-28 22:39:00,83.4,74.7,30.00,SE,135,0.0,0.0,75,0.00,,---,0.04,VWS V13.01,2013-07-29 02:39:00,
2013-07-28 22:40:00,83.4,74.7,30.00,SSE,158,0.0,0.0,75,0.00,,---,0.04,VWS V13.01,2013-07-29 02:40:00,
2013-07-28 22:43:00,83.4,74.7,30.00,SSE,158,0.0,0.0,75,0.00,,---,0.04,VWS V13.01,2013-07-29 02:43:00,
2013-07-28 22:44:00,83.3,74.6,30.00,SSE,158,0.0,0.0,75,0.00,,---,0.04,VWS V13.01,2013-07-29 02:44:00,
2013-07-28 22:46:00,83.3,74.6,30.00,SE,135,1.7,1.7,75,0.00,,---,0.04,VWS V13.01,2013-07-29 02:46:00,
2013-07-28 22:48:00,83.3,74.9,30.00,SSE,158,0.0,0.0,76,0.00,,---,0.04,VWS V13.01,2013-07-29 02:48:00,
2013-07-28 22:49:00,83.3,74.9,30.00,SE,135,2.0,2.0,76,0.00,,---,0.04,VWS V13.01,2013-07-29 02:49:00,
2013-07-28 22:52:00,83.3,74.9,30.00,South,180,0.0,0.0,76,0.00,,---,0.04,VWS V13.01,2013-07-29 02:52:00,
2013-07-28 22:53:00,83.3,74.9,30.00,South,180,2.2,2.2,76,0.00,,---,0.04,VWS V13.01,2013-07-29 02:53:00,
2013-07-28 22:54:00,83.3,74.9,30.00,South,180,0.0,0.0,76,0.00,,---,0.04,VWS V13.01,2013-07-29 02:54:00,
2013-07-28 22:57:00,83.3,74.9,30.00,South,180,0.0,2.0,76,0.00,,---,0.04,VWS V13.01,2013-07-29 02:57:00,
2013-07-28 22:58:00,83.3,74.9,30.00,SSE,158,0.0,0.0,76,0.00,,---,0.04,VWS V13.01,2013-07-29 02:58:00,
2013-07-28 22:59:00,83.1,74.8,30.00,SE,135,0.0,0.0,76,0.00,,---,0.04,VWS V13.01,2013-07-29 02:59:00,
2013-07-28 23:00:00,83.1,74.8,30.00,SE,135,0.0,0.0,76,0.00,,---,0.04,VWS V13.01,2013-07-29 03:00:00,
2013-07-28 23:02:00,83.1,74.8,30.00,SE,135,0.0,0.0,76,0.00,,---,0.04,VWS V13.01,2013-07-29 03:02:00,
2013-07-28 23:04:00,83.1,74.8,30.00,SSE,158,0.8,0.8,76,0.00,,---,0.04,VWS V13.01,2013-07-29 03:04:00,
2013-07-28 23:05:00,83.1,74.8,30.00,SSE,158,2.4,2.4,76,0.00,,---,0.04,VWS V13.01,2013-07-29 03:05:00,
2013-07-28 23:07:00,83.1,74.8,30.00,SSE,158,0.0,0.0,76,0.00,,---,0.04,VWS V13.01,2013-07-29 03:07:00,
2013-07-28 23:09:00,83.1,74.8,30.00,SSE,158,0.0,0.0,76,0.00,,---,0.04,VWS V13.01,2013-07-29 03:09:00,
2013-07-28 23:10:00,83.1,74.4,30.00,SSE,158,0.0,0.0,75,0.00,,---,0.04,VWS V13.01,2013-07-29 03:10:00,
2013-07-28 23:12:00,83.1,74.8,29.99,SE,135,0.0,0.0,76,0.00,,---,0.04,VWS V13.01,2013-07-29 03:12:00,
2013-07-28 23:14:00,83.1,74.8,29.99,South,180,0.0,0.0,76,0.00,,---,0.04,VWS V13.01,2013-07-29 03:14:00,
2013-07-28 23:15:00,83.1,74.8,29.99,SSW,202,0.0,0.0,76,0.00,,---,0.04,VWS V13.01,2013-07-29 03:15:00,
2013-07-28 23:18:00,83.1,74.8,29.99,SSE,158,0.0,0.0,76,0.00,,---,0.04,VWS V13.01,2013-07-29 03:18:00,
2013-07-28 23:19:00,83.1,74.8,29.99,South,180,1.1,1.1,76,0.00,,---,0.04,VWS V13.01,2013-07-29 03:19:00,
2013-07-28 23:20:00,83.1,74.8,29.99,South,180,1.1,1.1,76,0.00,,---,0.04,VWS V13.01,2013-07-29 03:20:00,
2013-07-28 23:23:00,83.1,74.8,30.00,SW,225,1.5,1.5,76,0.00,,---,0.04,VWS V13.01,2013-07-29 03:23:00,
2013-07-28 23:24:00,82.9,74.9,30.00,SW,225,0.0,0.0,77,0.00,,---,0.04,VWS V13.01,2013-07-29 03:24:00,
2013-07-28 23:25:00,82.9,74.9,30.00,SW,225,0.0,0.0,77,0.00,,---,0.04,VWS V13.01,2013-07-29 03:25:00,
2013-07-28 23:28:00,82.9,74.9,30.00,SSE,158,0.0,1.7,77,0.00,,---,0.04,VWS V13.01,2013-07-29 03:28:00,
2013-07-28 23:29:00,82.7,74.8,30.00,SSW,202,0.0,0.0,77,0.00,,---,0.04,VWS V13.01,2013-07-29 03:29:00,
2013-07-28 23:30:00,82.7,74.8,29.99,SSW,202,0.0,0.0,77,0.00,,---,0.04,VWS V13.01,2013-07-29 03:30:00,
2013-07-28 23:31:00,82.7,74.8,29.99,SSW,202,0.0,0.0,77,0.00,,---,0.04,VWS V13.01,2013-07-29 03:31:00,
2013-07-28 23:33:00,82.5,74.9,29.99,South,180,0.0,0.0,78,0.00,,---,0.04,VWS V13.01,2013-07-29 03:33:00,
2013-07-28 23:34:00,82.5,74.9,29.99,SW,225,0.0,0.0,78,0.00,,---,0.04,VWS V13.01,2013-07-29 03:34:00,
2013-07-28 23:35:00,82.5,74.9,29.99,South,180,0.0,0.0,78,0.00,,---,0.04,VWS V13.01,2013-07-29 03:35:00,
2013-07-28 23:36:00,82.5,74.9,29.99,South,180,0.0,0.0,78,0.00,,---,0.04,VWS V13.01,2013-07-29 03:36:00,
2013-07-28 23:39:00,82.5,74.9,29.99,South,180,0.0,0.0,78,0.00,,---,0.04,VWS V13.01,2013-07-29 03:39:00,
2013-07-28 23:40:00,82.5,74.9,29.99,South,180,0.0,0.0,78,0.00,,---,0.04,VWS V13.01,2013-07-29 03:40:00,
2013-07-28 23:41:00,82.5,74.9,30.00,SW,225,0.0,0.0,78,0.00,,---,0.04,VWS V13.01,2013-07-29 03:41:00,
2013-07-28 23:45:00,82.5,74.9,30.00,SSW,202,0.0,0.0,78,0.00,,---,0.04,VWS V13.01,2013-07-29 03:45:00,
2013-07-28 23:46:00,82.4,75.2,30.00,SW,225,0.0,0.0,79,0.00,,---,0.04,VWS V13.01,2013-07-29 03:46:00,
2013-07-28 23:50:00,82.2,75.0,29.99,SW,225,0.0,0.0,79,0.00,,---,0.04,VWS V13.01,2013-07-29 03:50:00,
2013-07-28 23:51:00,82.2,75.0,29.99,SW,225,0.0,0.0,79,0.00,,---,0.04,VWS V13.01,2013-07-29 03:51:00,
2013-07-28 23:52:00,82.2,75.0,29.99,WSW,248,0.0,0.0,79,0.00,,---,0.04,VWS V13.01,2013-07-29 03:52:00,
2013-07-28 23:55:00,82.2,75.0,29.99,SW,225,0.0,0.0,79,0.00,,---,0.04,VWS V13.01,2013-07-29 03:55:00,
2013-07-28 23:56:00,82.2,75.0,29.99,SW,225,0.0,0.0,79,0.00,,---,0.04,VWS V13.01,2013-07-29 03:56:00,
2013-07-28 23:57:00,82.2,75.0,29.99,SW,225,1.5,1.5,79,0.00,,---,0.00,VWS V13.01,2013-07-29 03:57:00,